Time,TemperatureF,DewpointF,PressureIn,WindDirection,WindDirectionDegrees,WindSpeedMPH,WindSpeedGustMPH,Humidity,HourlyPrecipIn,Conditions,Clouds,dailyrainin,SoftwareType,DateUTC
2013-02-15 00:00:00,31.4,29.6,29.88,North,360,4.0,10.0,93,0.00,,---,0.00,VWS V14.00,2013-02-15 05:00:00,
2013-02-15 00:01:00,31.4,29.6,29.88,North,360,4.0,10.0,93,0.00,,---,0.00,VWS V14.00,2013-02-15 05:01:00,
2013-02-15 00:06:00,31.2,29.4,29.88,North,355,5.0,11.0,93,0.00,,---,0.00,VWS V14.00,2013-02-15 05:06:00,
2013-02-15 00:07:00,31.2,29.4,29.88,North,355,5.0,11.0,93,0.00,,---,0.00,VWS V14.00,2013-02-15 05:07:00,
2013-02-15 00:11:00,31.1,29.3,29.88,NNW,342,4.0,11.0,93,0.00,,---,0.00,VWS V14.00,2013-02-15 05:11:00,
2013-02-15 00:13:00,31.1,29.3,29.88,NW,309,2.0,11.0,93,0.00,,---,0.00,VWS V14.00,2013-02-15 05:13:00,
2013-02-15 00:16:00,31.0,29.2,29.88,NW,322,3.0,11.0,93,0.00,,---,0.00,VWS V14.00,2013-02-15 05:16:00,
2013-02-15 00:18:00,31.0,29.2,29.88,NNW,331,6.0,11.0,93,0.00,,---,0.00,VWS V14.00,2013-02-15 05:18:00,
2013-02-15 00:20:00,30.9,29.1,29.88,NNW,340,5.0,11.0,93,0.00,,---,0.00,VWS V14.00,2013-02-15 05:20:00,
2013-02-15 00:23:00,30.9,29.1,29.88,NNW,342,4.0,11.0,93,0.00,,---,0.00,VWS V14.00,2013-02-15 05:23:00,
2013-02-15 00:25:00,30.9,29.1,29.88,NNW,342,3.0,11.0,93,0.00,,---,0.00,VWS V14.00,2013-02-15 05:25:00,
2013-02-15 00:27:00,30.9,29.1,29.88,North,355,4.0,11.0,93,0.00,,---,0.00,VWS V14.00,2013-02-15 05:27:00,
2013-02-15 00:28:00,30.8,29.0,29.89,NW,325,4.0,7.0,93,0.00,,---,0.00,VWS V14.00,2013-02-15 05:28:00,
2013-02-15 00:30:00,30.8,29.0,29.89,NW,318,5.0,9.0,93,0.00,,---,0.00,VWS V14.00,2013-02-15 05:30:00,
2013-02-15 00:32:00,30.8,29.0,29.89,NW,315,4.0,9.0,93,0.00,,---,0.00,VWS V14.00,2013-02-15 05:32:00,
2013-02-15 00:33:00,30.7,28.9,29.89,NW,315,2.0,9.0,93,0.00,,---,0.00,VWS V14.00,2013-02-15 05:33:00,
2013-02-15 00:35:00,30.7,28.9,29.89,NW,317,3.0,9.0,93,0.00,,---,0.00,VWS V14.00,2013-02-15 05:35:00,
2013-02-15 00:36:00,30.7,28.9,29.89,NW,317,4.0,9.0,93,0.00,,---,0.00,VWS V14.00,2013-02-15 05:36:00,
2013-02-15 00:37:00,30.6,28.8,29.89,NNW,338,4.0,9.0,93,0.00,,---,0.00,VWS V14.00,2013-02-15 05:37:00,
2013-02-15 00:40:00,30.6,28.8,29.89,NNW,338,5.0,9.0,93,0.00,,---,0.00,VWS V14.00,2013-02-15 05:40:00,
2013-02-15 00:41:00,30.6,28.8,29.89,NNW,335,4.0,9.0,93,0.00,,---,0.00,VWS V14.00,2013-02-15 05:41:00,
2013-02-15 00:43:00,30.5,28.7,29.89,NNW,336,5.0,9.0,93,0.00,,---,0.00,VWS V14.00,2013-02-15 05:43:00,
2013-02-15 00:46:00,30.5,28.7,29.89,NNW,336,4.0,9.0,93,0.00,,---,0.00,VWS V14.00,2013-02-15 05:46:00,
2013-02-15 00:47:00,30.4,28.6,29.89,NNW,336,5.0,9.0,93,0.00,,---,0.00,VWS V14.00,2013-02-15 05:47:00,
2013-02-15 00:49:00,30.4,28.6,29.89,NNW,336,2.0,9.0,93,0.00,,---,0.00,VWS V14.00,2013-02-15 05:49:00,
2013-02-15 00:51:00,30.4,28.6,29.89,NNW,336,5.0,9.0,93,0.00,,---,0.00,VWS V14.00,2013-02-15 05:51:00,
2013-02-15 00:52:00,30.4,28.6,29.89,NNW,335,5.0,9.0,93,0.00,,---,0.00,VWS V14.00,2013-02-15 05:52:00,
2013-02-15 00:53:00,30.4,28.6,29.89,NNW,336,4.0,9.0,93,0.00,,---,0.00,VWS V14.00,2013-02-15 05:53:00,
2013-02-15 00:54:00,30.4,28.6,29.89,NNW,342,5.0,9.0,93,0.00,,---,0.00,VWS V14.00,2013-02-15 05:54:00,
2013-02-15 00:56:00,30.3,28.5,29.89,NNW,346,5.0,9.0,93,0.00,,---,0.00,VWS V14.00,2013-02-15 05:56:00,
2013-02-15 00:57:00,30.3,28.5,29.89,NNW,346,4.0,9.0,93,0.00,,---,0.00,VWS V14.00,2013-02-15 05:57:00,
2013-02-15 00:58:00,30.3,28.5,29.89,NNW,345,2.0,9.0,93,0.00,,---,0.00,VWS V14.00,2013-02-15 05:58:00,
2013-02-15 00:59:00,30.3,28.5,29.89,NNW,344,3.0,5.0,93,0.00,,---,0.00,VWS V14.00,2013-02-15 05:59:00,
2013-02-15 01:02:00,30.3,28.5,29.89,North,9,7.0,9.0,93,0.00,,---,0.00,VWS V14.00,2013-02-15 06:02:00,
2013-02-15 01:05:00,30.3,28.5,29.89,NNE,20,2.0,9.0,93,0.00,,---,0.00,VWS V14.00,2013-02-15 06:05:00,
2013-02-15 01:06:00,30.3,28.5,29.89,NNE,19,2.0,9.0,93,0.00,,---,0.00,VWS V14.00,2013-02-15 06:06:00,
2013-02-15 01:07:00,30.3,28.5,29.90,North,355,5.0,9.0,93,0.00,,---,0.00,VWS V14.00,2013-02-15 06:07:00,
2013-02-15 01:08:00,30.2,28.4,29.90,North,355,5.0,9.0,93,0.00,,---,0.00,VWS V14.00,2013-02-15 06:08:00,
2013-02-15 01:10:00,30.1,28.3,29.90,North,349,4.0,10.0,93,0.00,,---,0.00,VWS V14.00,2013-02-15 06:10:00,
2013-02-15 01:11:00,30.1,28.3,29.90,North,349,5.0,10.0,93,0.00,,---,0.00,VWS V14.00,2013-02-15 06:11:00,
2013-02-15 01:12:00,30.1,28.3,29.90,NNW,340,8.0,10.0,93,0.00,,---,0.00,VWS V14.00,2013-02-15 06:12:00,
2013-02-15 01:13:00,30.1,28.3,29.90,North,360,11.0,11.0,93,0.00,,---,0.00,VWS V14.00,2013-02-15 06:13:00,
2013-02-15 01:15:00,30.0,28.2,29.90,NNW,336,4.0,11.0,93,0.00,,---,0.00,VWS V14.00,2013-02-15 06:15:00,
2013-02-15 01:16:00,30.0,28.2,29.90,NNW,336,4.0,11.0,93,0.00,,---,0.00,VWS V14.00,2013-02-15 06:16:00,
2013-02-15 01:17:00,29.9,28.1,29.90,NNW,333,5.0,11.0,93,0.00,,---,0.00,VWS V14.00,2013-02-15 06:17:00,
2013-02-15 01:18:00,29.9,28.1,29.90,NNW,331,4.0,11.0,93,0.00,,---,0.00,VWS V14.00,2013-02-15 06:18:00,
2013-02-15 01:20:00,29.8,28.0,29.90,NNW,333,4.0,11.0,93,0.00,,---,0.00,VWS V14.00,2013-02-15 06:20:00,
2013-02-15 01:21:00,29.8,28.0,29.90,NNW,342,6.0,11.0,93,0.00,,---,0.00,VWS V14.00,2013-02-15 06:21:00,
2013-02-15 01:22:00,29.8,28.0,29.90,NNW,345,5.0,11.0,93,0.00,,---,0.00,VWS V14.00,2013-02-15 06:22:00,
2013-02-15 01:23:00,29.8,28.0,29.90,NNW,341,6.0,12.0,93,0.00,,---,0.00,VWS V14.00,2013-02-15 06:23:00,
2013-02-15 01:25:00,29.7,27.9,29.90,NNW,343,3.0,12.0,93,0.00,,---,0.00,VWS V14.00,2013-02-15 06:25:00,
2013-02-15 01:26:00,29.7,27.9,29.90,NNW,341,5.0,12.0,93,0.00,,---,0.00,VWS V14.00,2013-02-15 06:26:00,
2013-02-15 01:28:00,29.7,27.9,29.90,NNW,338,3.0,12.0,93,0.00,,---,0.00,VWS V14.00,2013-02-15 06:28:00,
2013-02-15 01:30:00,29.6,27.8,29.90,NNW,348,3.0,7.0,93,0.00,,---,0.00,VWS V14.00,2013-02-15 06:30:00,
2013-02-15 01:31:00,29.6,27.8,29.90,NNW,345,4.0,7.0,93,0.00,,---,0.00,VWS V14.00,2013-02-15 06:31:00,
2013-02-15 01:33:00,29.6,27.8,29.90,NNW,335,7.0,12.0,93,0.00,,---,0.00,VWS V14.00,2013-02-15 06:33:00,
2013-02-15 01:34:00,29.6,27.8,29.90,NNW,338,7.0,12.0,93,0.00,,---,0.00,VWS V14.00,2013-02-15 06:34:00,
2013-02-15 01:36:00,29.5,27.7,29.90,NNW,340,7.0,12.0,93,0.00,,---,0.00,VWS V14.00,2013-02-15 06:36:00,
2013-02-15 01:39:00,29.4,27.6,29.90,NNW,337,3.0,12.0,93,0.00,,---,0.00,VWS V14.00,2013-02-15 06:39:00,
2013-02-15 01:40:00,29.4,27.6,29.91,NNW,337,6.0,12.0,93,0.00,,---,0.00,VWS V14.00,2013-02-15 06:40:00,
2013-02-15 01:42:00,29.4,27.6,29.91,NNW,340,6.0,12.0,93,0.00,,---,0.00,VWS V14.00,2013-02-15 06:42:00,
2013-02-15 01:44:00,29.4,27.6,29.91,North,360,5.0,12.0,93,0.00,,---,0.00,VWS V14.00,2013-02-15 06:44:00,
2013-02-15 01:45:00,29.4,27.6,29.91,NNW,348,6.0,12.0,93,0.00,,---,0.00,VWS V14.00,2013-02-15 06:45:00,
2013-02-15 01:47:00,29.4,27.6,29.90,NNW,346,4.0,12.0,93,0.00,,---,0.00,VWS V14.00,2013-02-15 06:47:00,
2013-02-15 01:49:00,29.4,27.6,29.90,NNW,348,5.0,12.0,93,0.00,,---,0.00,VWS V14.00,2013-02-15 06:49:00,
2013-02-15 01:52:00,29.4,27.6,29.90,NNW,348,4.0,12.0,93,0.00,,---,0.00,VWS V14.00,2013-02-15 06:52:00,
2013-02-15 01:53:00,29.4,27.6,29.90,NNW,348,5.0,12.0,93,0.00,,---,0.00,VWS V14.00,2013-02-15 06:53:00,
2013-02-15 01:56:00,29.4,27.6,29.90,NNW,348,3.0,12.0,93,0.00,,---,0.00,VWS V14.00,2013-02-15 06:56:00,
2013-02-15 02:00:00,29.4,27.6,29.91,North,355,7.0,7.0,93,0.00,,---,0.00,VWS V14.00,2013-02-15 07:00:00,
2013-02-15 02:01:00,29.3,27.5,29.91,North,355,3.0,7.0,93,0.00,,---,0.00,VWS V14.00,2013-02-15 07:01:00,
2013-02-15 02:03:00,29.3,27.5,29.91,NNW,348,4.0,7.0,93,0.00,,---,0.00,VWS V14.00,2013-02-15 07:03:00,
2013-02-15 02:05:00,29.3,27.5,29.91,North,350,4.0,7.0,93,0.00,,---,0.00,VWS V14.00,2013-02-15 07:05:00,
2013-02-15 02:07:00,29.3,27.5,29.91,North,349,3.0,7.0,93,0.00,,---,0.00,VWS V14.00,2013-02-15 07:07:00,
2013-02-15 02:09:00,29.3,27.5,29.91,North,355,4.0,7.0,93,0.00,,---,0.00,VWS V14.00,2013-02-15 07:09:00,
2013-02-15 02:10:00,29.3,27.5,29.91,North,355,4.0,7.0,93,0.00,,---,0.00,VWS V14.00,2013-02-15 07:10:00,
2013-02-15 02:12:00,29.3,27.5,29.91,North,355,5.0,7.0,93,0.00,,---,0.00,VWS V14.00,2013-02-15 07:12:00,
2013-02-15 02:14:00,29.2,27.4,29.91,North,355,3.0,7.0,93,0.00,,---,0.00,VWS V14.00,2013-02-15 07:14:00,
2013-02-15 02:15:00,29.2,27.4,29.91,North,355,4.0,7.0,93,0.00,,---,0.00,VWS V14.00,2013-02-15 07:15:00,
2013-02-15 02:16:00,29.2,27.4,29.91,North,355,3.0,7.0,93,0.00,,---,0.00,VWS V14.00,2013-02-15 07:16:00,
2013-02-15 02:19:00,29.2,27.4,29.91,North,355,2.0,7.0,93,0.00,,---,0.00,VWS V14.00,2013-02-15 07:19:00,
2013-02-15 02:20:00,29.1,27.3,29.91,North,355,2.0,7.0,93,0.00,,---,0.00,VWS V14.00,2013-02-15 07:20:00,
2013-02-15 02:23:00,29.1,27.3,29.92,North,355,1.0,7.0,93,0.00,,---,0.00,VWS V14.00,2013-02-15 07:23:00,
2013-02-15 02:24:00,29.1,27.3,29.92,North,355,2.0,7.0,93,0.00,,---,0.00,VWS V14.00,2013-02-15 07:24:00,
2013-02-15 02:25:00,29.1,27.3,29.92,North,355,4.0,7.0,93,0.00,,---,0.00,VWS V14.00,2013-02-15 07:25:00,
2013-02-15 02:27:00,29.0,27.2,29.92,North,350,5.0,7.0,93,0.00,,---,0.00,VWS V14.00,2013-02-15 07:27:00,
2013-02-15 02:30:00,29.0,27.2,29.91,NW,320,3.0,7.0,93,0.00,,---,0.00,VWS V14.00,2013-02-15 07:30:00,
2013-02-15 02:32:00,28.9,27.1,29.91,NW,321,3.0,7.0,93,0.00,,---,0.00,VWS V14.00,2013-02-15 07:32:00,
2013-02-15 02:33:00,28.8,27.0,29.91,NW,321,3.0,7.0,93,0.00,,---,0.00,VWS V14.00,2013-02-15 07:33:00,
2013-02-15 02:35:00,28.8,27.0,29.91,NW,321,3.0,7.0,93,0.00,,---,0.00,VWS V14.00,2013-02-15 07:35:00,
2013-02-15 02:37:00,28.8,27.0,29.92,NW,321,3.0,7.0,93,0.00,,---,0.00,VWS V14.00,2013-02-15 07:37:00,
2013-02-15 02:38:00,28.8,27.0,29.92,NW,321,4.0,7.0,93,0.00,,---,0.00,VWS V14.00,2013-02-15 07:38:00,
2013-02-15 02:41:00,28.8,27.0,29.92,NW,323,5.0,7.0,93,0.00,,---,0.00,VWS V14.00,2013-02-15 07:41:00,
2013-02-15 02:42:00,28.7,26.9,29.92,NW,323,3.0,7.0,93,0.00,,---,0.00,VWS V14.00,2013-02-15 07:42:00,
2013-02-15 02:43:00,28.7,26.9,29.92,NNW,336,4.0,7.0,93,0.00,,---,0.00,VWS V14.00,2013-02-15 07:43:00,
2013-02-15 02:44:00,28.7,26.9,29.92,NNW,336,4.0,7.0,93,0.00,,---,0.00,VWS V14.00,2013-02-15 07:44:00,
2013-02-15 02:48:00,28.7,26.9,29.92,North,355,3.0,8.0,93,0.00,,---,0.00,VWS V14.00,2013-02-15 07:48:00,
2013-02-15 02:49:00,28.7,26.9,29.92,NNW,348,6.0,8.0,93,0.00,,---,0.00,VWS V14.00,2013-02-15 07:49:00,
2013-02-15 02:50:00,28.7,26.9,29.92,NNW,344,5.0,8.0,93,0.00,,---,0.00,VWS V14.00,2013-02-15 07:50:00,
2013-02-15 02:53:00,28.7,26.9,29.92,NNW,342,4.0,8.0,93,0.00,,---,0.00,VWS V14.00,2013-02-15 07:53:00,
2013-02-15 02:54:00,28.7,26.9,29.92,NNW,341,2.0,8.0,93,0.00,,---,0.00,VWS V14.00,2013-02-15 07:54:00,
2013-02-15 02:55:00,28.7,26.9,29.92,NNW,341,2.0,8.0,93,0.00,,---,0.00,VWS V14.00,2013-02-15 07:55:00,
2013-02-15 02:59:00,28.7,26.9,29.93,NNW,336,4.0,7.0,93,0.00,,---,0.00,VWS V14.00,2013-02-15 07:59:00,
2013-02-15 03:00:00,28.7,26.9,29.93,NNW,336,3.0,7.0,93,0.00,,---,0.00,VWS V14.00,2013-02-15 08:00:00,
2013-02-15 03:01:00,28.7,26.9,29.93,NNW,330,4.0,7.0,93,0.00,,---,0.00,VWS V14.00,2013-02-15 08:01:00,
2013-02-15 03:05:00,28.7,26.9,29.93,NNW,331,2.0,7.0,93,0.00,,---,0.00,VWS V14.00,2013-02-15 08:05:00,
2013-02-15 03:06:00,28.7,26.9,29.93,NNW,331,4.0,7.0,93,0.00,,---,0.00,VWS V14.00,2013-02-15 08:06:00,
2013-02-15 03:09:00,28.7,26.9,29.93,NNW,331,2.0,7.0,93,0.00,,---,0.00,VWS V14.00,2013-02-15 08:09:00,
2013-02-15 03:10:00,28.7,26.9,29.93,NNW,330,3.0,7.0,93,0.00,,---,0.00,VWS V14.00,2013-02-15 08:10:00,
2013-02-15 03:11:00,28.7,26.9,29.93,NNW,330,3.0,7.0,93,0.00,,---,0.00,VWS V14.00,2013-02-15 08:11:00,
2013-02-15 03:14:00,28.7,26.9,29.93,NW,323,5.0,7.0,93,0.00,,---,0.00,VWS V14.00,2013-02-15 08:14:00,
2013-02-15 03:15:00,28.7,26.9,29.93,NW,322,4.0,7.0,93,0.00,,---,0.00,VWS V14.00,2013-02-15 08:15:00,
2013-02-15 03:16:00,28.7,26.9,29.93,NW,322,4.0,7.0,93,0.00,,---,0.00,VWS V14.00,2013-02-15 08:16:00,
2013-02-15 03:19:00,28.6,26.6,29.93,NW,312,3.0,7.0,92,0.00,,---,0.00,VWS V14.00,2013-02-15 08:19:00,
2013-02-15 03:21:00,28.6,26.6,29.93,NW,312,2.0,7.0,92,0.00,,---,0.00,VWS V14.00,2013-02-15 08:21:00,
2013-02-15 03:22:00,28.6,26.6,29.93,NW,312,3.0,7.0,92,0.00,,---,0.00,VWS V14.00,2013-02-15 08:22:00,
2013-02-15 03:25:00,28.5,26.5,29.93,NW,314,4.0,7.0,92,0.00,,---,0.00,VWS V14.00,2013-02-15 08:25:00,
2013-02-15 03:26:00,28.5,26.5,29.93,NW,314,3.0,7.0,92,0.00,,---,0.00,VWS V14.00,2013-02-15 08:26:00,
2013-02-15 03:27:00,28.5,26.5,29.93,NW,314,4.0,7.0,92,0.00,,---,0.00,VWS V14.00,2013-02-15 08:27:00,
2013-02-15 03:31:00,28.4,26.4,29.93,NW,315,4.0,10.0,92,0.00,,---,0.00,VWS V14.00,2013-02-15 08:31:00,
2013-02-15 03:32:00,28.3,26.3,29.93,NW,317,4.0,10.0,92,0.00,,---,0.00,VWS V14.00,2013-02-15 08:32:00,
2013-02-15 03:33:00,28.3,26.3,29.93,NW,317,4.0,10.0,92,0.00,,---,0.00,VWS V14.00,2013-02-15 08:33:00,
2013-02-15 03:36:00,28.2,26.2,29.93,NW,313,4.0,10.0,92,0.00,,---,0.00,VWS V14.00,2013-02-15 08:36:00,
2013-02-15 03:39:00,28.2,26.2,29.94,NW,315,5.0,10.0,92,0.00,,---,0.00,VWS V14.00,2013-02-15 08:39:00,
2013-02-15 03:41:00,28.1,26.1,29.94,NW,315,6.0,10.0,92,0.00,,---,0.00,VWS V14.00,2013-02-15 08:41:00,
2013-02-15 03:42:00,28.1,26.1,29.94,NNW,344,6.0,10.0,92,0.00,,---,0.00,VWS V14.00,2013-02-15 08:42:00,
2013-02-15 03:44:00,28.1,26.1,29.94,NNW,348,4.0,10.0,92,0.00,,---,0.00,VWS V14.00,2013-02-15 08:44:00,
2013-02-15 03:46:00,28.0,26.0,29.94,NNW,337,3.0,10.0,92,0.00,,---,0.00,VWS V14.00,2013-02-15 08:46:00,
2013-02-15 03:47:00,28.0,26.0,29.94,NNW,342,5.0,10.0,92,0.00,,---,0.00,VWS V14.00,2013-02-15 08:47:00,
2013-02-15 03:48:00,28.0,26.0,29.94,NNW,340,5.0,10.0,92,0.00,,---,0.00,VWS V14.00,2013-02-15 08:48:00,
2013-02-15 03:49:00,28.0,26.0,29.94,NNW,339,3.0,10.0,92,0.00,,---,0.00,VWS V14.00,2013-02-15 08:49:00,
2013-02-15 03:52:00,27.9,25.6,29.94,NNW,338,3.0,10.0,91,0.00,,---,0.00,VWS V14.00,2013-02-15 08:52:00,
2013-02-15 03:53:00,27.9,25.6,29.94,NNW,338,5.0,10.0,91,0.00,,---,0.00,VWS V14.00,2013-02-15 08:53:00,
2013-02-15 03:55:00,27.8,25.5,29.94,NNW,335,4.0,10.0,91,0.00,,---,0.00,VWS V14.00,2013-02-15 08:55:00,
2013-02-15 03:57:00,27.8,25.5,29.94,North,349,8.0,10.0,91,0.00,,---,0.00,VWS V14.00,2013-02-15 08:57:00,
2013-02-15 03:58:00,27.7,25.4,29.94,NNW,340,4.0,10.0,91,0.00,,---,0.00,VWS V14.00,2013-02-15 08:58:00,
2013-02-15 04:01:00,27.7,25.4,29.94,NNW,346,1.0,6.0,91,0.00,,---,0.00,VWS V14.00,2013-02-15 09:01:00,
2013-02-15 04:02:00,27.7,25.4,29.94,NNW,346,5.0,7.0,91,0.00,,---,0.00,VWS V14.00,2013-02-15 09:02:00,
2013-02-15 04:03:00,27.7,25.4,29.94,NNW,342,5.0,7.0,91,0.00,,---,0.00,VWS V14.00,2013-02-15 09:03:00,
2013-02-15 04:07:00,27.6,25.3,29.95,NNW,339,2.0,7.0,91,0.00,,---,0.00,VWS V14.00,2013-02-15 09:07:00,
2013-02-15 04:08:00,27.6,25.3,29.95,NNW,338,3.0,7.0,91,0.00,,---,0.00,VWS V14.00,2013-02-15 09:08:00,
2013-02-15 04:11:00,27.5,25.0,29.95,NNW,340,3.0,7.0,90,0.00,,---,0.00,VWS V14.00,2013-02-15 09:11:00,
2013-02-15 04:12:00,27.5,25.2,29.94,NNW,340,3.0,7.0,91,0.00,,---,0.00,VWS V14.00,2013-02-15 09:12:00,
2013-02-15 04:13:00,27.5,25.0,29.94,NNW,341,4.0,7.0,90,0.00,,---,0.00,VWS V14.00,2013-02-15 09:13:00,
2013-02-15 04:17:00,27.4,24.9,29.95,NNW,341,2.0,7.0,90,0.00,,---,0.00,VWS V14.00,2013-02-15 09:17:00,
2013-02-15 04:19:00,27.4,24.9,29.95,NNW,342,4.0,7.0,90,0.00,,---,0.00,VWS V14.00,2013-02-15 09:19:00,
2013-02-15 04:21:00,27.3,24.8,29.95,NNW,342,4.0,7.0,90,0.00,,---,0.00,VWS V14.00,2013-02-15 09:21:00,
2013-02-15 04:25:00,27.3,24.8,29.95,NNW,340,6.0,7.0,90,0.00,,---,0.00,VWS V14.00,2013-02-15 09:25:00,
2013-02-15 04:26:00,27.2,24.7,29.95,NNW,344,6.0,7.0,90,0.00,,---,0.00,VWS V14.00,2013-02-15 09:26:00,
2013-02-15 04:27:00,27.2,24.7,29.95,NNW,346,6.0,7.0,90,0.00,,---,0.00,VWS V14.00,2013-02-15 09:27:00,
2013-02-15 04:30:00,27.1,24.6,29.95,North,360,4.0,8.0,90,0.00,,---,0.00,VWS V14.00,2013-02-15 09:30:00,
2013-02-15 04:31:00,27.2,24.7,29.95,North,360,5.0,8.0,90,0.00,,---,0.00,VWS V14.00,2013-02-15 09:31:00,
2013-02-15 04:32:00,27.2,24.4,29.95,North,360,5.0,8.0,89,0.00,,---,0.00,VWS V14.00,2013-02-15 09:32:00,
2013-02-15 04:33:00,27.2,24.4,29.95,North,360,3.0,8.0,89,0.00,,---,0.00,VWS V14.00,2013-02-15 09:33:00,
2013-02-15 04:36:00,27.2,24.4,29.95,North,360,2.0,8.0,89,0.00,,---,0.00,VWS V14.00,2013-02-15 09:36:00,
2013-02-15 04:38:00,27.2,24.4,29.95,North,355,4.0,8.0,89,0.00,,---,0.00,VWS V14.00,2013-02-15 09:38:00,
2013-02-15 04:39:00,27.2,24.4,29.95,North,355,3.0,8.0,89,0.00,,---,0.00,VWS V14.00,2013-02-15 09:39:00,
2013-02-15 04:40:00,27.2,24.4,29.95,North,349,4.0,8.0,89,0.00,,---,0.00,VWS V14.00,2013-02-15 09:40:00,
2013-02-15 04:42:00,27.1,24.3,29.96,NNW,346,3.0,8.0,89,0.00,,---,0.00,VWS V14.00,2013-02-15 09:42:00,
2013-02-15 04:43:00,27.2,24.4,29.96,NNW,346,2.0,8.0,89,0.00,,---,0.00,VWS V14.00,2013-02-15 09:43:00,
2013-02-15 04:44:00,27.2,24.1,29.96,NNW,346,2.0,8.0,88,0.00,,---,0.00,VWS V14.00,2013-02-15 09:44:00,
2013-02-15 04:45:00,27.1,24.0,29.96,NNW,346,2.0,8.0,88,0.00,,---,0.00,VWS V14.00,2013-02-15 09:45:00,
2013-02-15 04:48:00,27.1,24.0,29.96,NNW,346,2.0,8.0,88,0.00,,---,0.00,VWS V14.00,2013-02-15 09:48:00,
2013-02-15 04:49:00,27.1,24.0,29.96,NNW,346,2.0,8.0,88,0.00,,---,0.00,VWS V14.00,2013-02-15 09:49:00,
2013-02-15 04:50:00,27.1,24.0,29.96,NNW,345,2.0,8.0,88,0.00,,---,0.00,VWS V14.00,2013-02-15 09:50:00,
2013-02-15 04:55:00,27.1,24.0,29.97,NNW,345,3.0,8.0,88,0.00,,---,0.00,VWS V14.00,2013-02-15 09:55:00,
2013-02-15 04:56:00,27.1,24.0,29.96,NNW,345,3.0,8.0,88,0.00,,---,0.00,VWS V14.00,2013-02-15 09:56:00,
2013-02-15 04:57:00,27.2,24.1,29.96,NNW,345,3.0,8.0,88,0.00,,---,0.00,VWS V14.00,2013-02-15 09:57:00,
2013-02-15 05:01:00,27.1,24.0,29.97,NNW,345,3.0,4.0,88,0.00,,---,0.00,VWS V14.00,2013-02-15 10:01:00,
2013-02-15 05:02:00,27.1,24.0,29.97,NNW,345,2.0,4.0,88,0.00,,---,0.00,VWS V14.00,2013-02-15 10:02:00,
2013-02-15 05:03:00,27.1,24.0,29.97,NNW,345,2.0,4.0,88,0.00,,---,0.00,VWS V14.00,2013-02-15 10:03:00,
2013-02-15 05:04:00,27.1,24.0,29.97,NNW,345,2.0,4.0,88,0.00,,---,0.00,VWS V14.00,2013-02-15 10:04:00,
2013-02-15 05:06:00,27.1,24.0,29.97,NNW,344,3.0,4.0,88,0.00,,---,0.00,VWS V14.00,2013-02-15 10:06:00,
2013-02-15 05:08:00,27.0,23.9,29.97,NNW,344,2.0,4.0,88,0.00,,---,0.00,VWS V14.00,2013-02-15 10:08:00,
2013-02-15 05:10:00,27.0,23.9,29.97,NNW,344,2.0,4.0,88,0.00,,---,0.00,VWS V14.00,2013-02-15 10:10:00,
2013-02-15 05:11:00,27.0,23.9,29.97,NNW,344,3.0,4.0,88,0.00,,---,0.00,VWS V14.00,2013-02-15 10:11:00,
2013-02-15 05:12:00,27.0,23.9,29.97,NNW,344,2.0,4.0,88,0.00,,---,0.00,VWS V14.00,2013-02-15 10:12:00,
2013-02-15 05:15:00,27.0,23.9,29.97,NNW,344,2.0,4.0,88,0.00,,---,0.00,VWS V14.00,2013-02-15 10:15:00,
2013-02-15 05:17:00,26.9,23.8,29.97,NNW,344,4.0,4.0,88,0.00,,---,0.00,VWS V14.00,2013-02-15 10:17:00,
2013-02-15 05:18:00,26.9,23.8,29.97,NNW,344,3.0,4.0,88,0.00,,---,0.00,VWS V14.00,2013-02-15 10:18:00,
2013-02-15 05:20:00,26.8,23.7,29.97,NNW,344,4.0,4.0,88,0.00,,---,0.00,VWS V14.00,2013-02-15 10:20:00,
2013-02-15 05:22:00,26.8,23.7,29.97,NNW,344,3.0,5.0,88,0.00,,---,0.00,VWS V14.00,2013-02-15 10:22:00,
2013-02-15 05:23:00,26.7,23.6,29.97,NNW,344,3.0,5.0,88,0.00,,---,0.00,VWS V14.00,2013-02-15 10:23:00,
2013-02-15 05:27:00,26.7,23.6,29.97,NNW,344,4.0,5.0,88,0.00,,---,0.00,VWS V14.00,2013-02-15 10:27:00,
2013-02-15 05:28:00,26.7,23.6,29.97,NNW,344,3.0,5.0,88,0.00,,---,0.00,VWS V14.00,2013-02-15 10:28:00,
2013-02-15 05:33:00,26.6,23.5,29.98,NNW,344,3.0,4.0,88,0.00,,---,0.00,VWS V14.00,2013-02-15 10:33:00,
2013-02-15 05:34:00,26.6,23.5,29.98,NNW,343,4.0,5.0,88,0.00,,---,0.00,VWS V14.00,2013-02-15 10:34:00,
2013-02-15 05:37:00,26.6,23.5,29.98,NNW,342,1.0,5.0,88,0.00,,---,0.00,VWS V14.00,2013-02-15 10:37:00,
2013-02-15 05:39:00,26.6,23.5,29.98,NNW,342,2.0,5.0,88,0.00,,---,0.00,VWS V14.00,2013-02-15 10:39:00,
2013-02-15 05:41:00,26.6,23.5,29.98,NNW,340,3.0,5.0,88,0.00,,---,0.00,VWS V14.00,2013-02-15 10:41:00,
2013-02-15 05:43:00,26.6,23.5,29.98,NNW,338,3.0,5.0,88,0.00,,---,0.00,VWS V14.00,2013-02-15 10:43:00,
2013-02-15 05:46:00,26.6,23.5,29.99,NNW,338,3.0,6.0,88,0.00,,---,0.00,VWS V14.00,2013-02-15 10:46:00,
2013-02-15 05:47:00,26.6,23.5,29.99,NNW,338,5.0,6.0,88,0.00,,---,0.00,VWS V14.00,2013-02-15 10:47:00,
2013-02-15 05:48:00,26.6,23.5,29.99,NNW,338,5.0,6.0,88,0.00,,---,0.00,VWS V14.00,2013-02-15 10:48:00,
2013-02-15 05:51:00,26.6,23.8,29.99,NW,325,2.0,7.0,89,0.00,,---,0.00,VWS V14.00,2013-02-15 10:51:00,
2013-02-15 05:52:00,26.6,23.8,29.99,NW,324,4.0,7.0,89,0.00,,---,0.00,VWS V14.00,2013-02-15 10:52:00,
2013-02-15 05:53:00,26.6,23.8,29.99,NW,323,6.0,7.0,89,0.00,,---,0.00,VWS V14.00,2013-02-15 10:53:00,
2013-02-15 05:54:00,26.6,23.8,29.99,NW,323,4.0,7.0,89,0.00,,---,0.00,VWS V14.00,2013-02-15 10:54:00,
2013-02-15 05:56:00,26.6,23.8,29.99,NW,325,5.0,7.0,89,0.00,,---,0.00,VWS V14.00,2013-02-15 10:56:00,
2013-02-15 05:57:00,26.6,23.8,29.99,NW,325,3.0,7.0,89,0.00,,---,0.00,VWS V14.00,2013-02-15 10:57:00,
2013-02-15 05:59:00,26.5,23.7,29.99,NW,324,4.0,6.0,89,0.00,,---,0.00,VWS V14.00,2013-02-15 10:59:00,
2013-02-15 06:01:00,26.6,23.8,29.99,NW,324,3.0,6.0,89,0.00,,---,0.00,VWS V14.00,2013-02-15 11:01:00,
2013-02-15 06:02:00,26.6,23.8,29.99,NW,326,6.0,6.0,89,0.00,,---,0.00,VWS V14.00,2013-02-15 11:02:00,
2013-02-15 06:04:00,26.5,23.7,30.00,NNW,327,3.0,7.0,89,0.00,,---,0.00,VWS V14.00,2013-02-15 11:04:00,
2013-02-15 06:06:00,26.5,23.7,29.99,NNW,327,3.0,7.0,89,0.00,,---,0.00,VWS V14.00,2013-02-15 11:06:00,
2013-02-15 06:07:00,26.5,23.7,29.99,NNW,328,7.0,7.0,89,0.00,,---,0.00,VWS V14.00,2013-02-15 11:07:00,
2013-02-15 06:08:00,26.5,23.7,29.99,NNW,328,4.0,7.0,89,0.00,,---,0.00,VWS V14.00,2013-02-15 11:08:00,
2013-02-15 06:09:00,26.5,23.7,30.00,NNW,330,6.0,9.0,89,0.00,,---,0.00,VWS V14.00,2013-02-15 11:09:00,
2013-02-15 06:11:00,26.5,23.7,30.00,NNW,331,5.0,9.0,89,0.00,,---,0.00,VWS V14.00,2013-02-15 11:11:00,
2013-02-15 06:13:00,26.5,23.7,30.00,NW,321,5.0,9.0,89,0.00,,---,0.00,VWS V14.00,2013-02-15 11:13:00,
2013-02-15 06:14:00,26.4,23.6,30.00,NW,321,3.0,9.0,89,0.00,,---,0.00,VWS V14.00,2013-02-15 11:14:00,
2013-02-15 06:15:00,26.4,23.6,30.00,NW,321,4.0,9.0,89,0.00,,---,0.00,VWS V14.00,2013-02-15 11:15:00,
2013-02-15 06:16:00,26.4,23.6,30.00,NW,321,4.0,9.0,89,0.00,,---,0.00,VWS V14.00,2013-02-15 11:16:00,
2013-02-15 06:18:00,26.4,23.6,30.00,NNW,327,8.0,9.0,89,0.00,,---,0.00,VWS V14.00,2013-02-15 11:18:00,
2013-02-15 06:20:00,26.4,23.6,30.00,NNW,337,5.0,9.0,89,0.00,,---,0.00,VWS V14.00,2013-02-15 11:20:00,
2013-02-15 06:22:00,26.3,23.5,30.00,NNW,339,4.0,10.0,89,0.00,,---,0.00,VWS V14.00,2013-02-15 11:22:00,
2013-02-15 06:23:00,26.3,23.5,30.00,NNW,345,6.0,10.0,89,0.00,,---,0.00,VWS V14.00,2013-02-15 11:23:00,
2013-02-15 06:25:00,26.3,23.5,30.00,NNW,340,6.0,10.0,89,0.00,,---,0.00,VWS V14.00,2013-02-15 11:25:00,
2013-02-15 06:28:00,26.3,23.5,30.00,NW,321,3.0,10.0,89,0.00,,---,0.00,VWS V14.00,2013-02-15 11:28:00,
2013-02-15 06:29:00,26.3,23.5,30.00,NW,319,5.0,6.0,89,0.00,,---,0.00,VWS V14.00,2013-02-15 11:29:00,
2013-02-15 06:32:00,26.3,23.5,30.00,North,355,5.0,8.0,89,0.00,,---,0.00,VWS V14.00,2013-02-15 11:32:00,
2013-02-15 06:33:00,26.3,23.5,30.00,NNW,344,4.0,8.0,89,0.00,,---,0.00,VWS V14.00,2013-02-15 11:33:00,
2013-02-15 06:34:00,26.3,23.5,30.00,NNW,344,5.0,8.0,89,0.00,,---,0.00,VWS V14.00,2013-02-15 11:34:00,
2013-02-15 06:35:00,26.3,23.5,30.00,NNW,344,4.0,8.0,89,0.00,,---,0.00,VWS V14.00,2013-02-15 11:35:00,
2013-02-15 06:37:00,26.3,23.5,30.00,NNW,343,2.0,8.0,89,0.00,,---,0.00,VWS V14.00,2013-02-15 11:37:00,
2013-02-15 06:39:00,26.3,23.5,30.00,North,5,6.0,11.0,89,0.00,,---,0.00,VWS V14.00,2013-02-15 11:39:00,
2013-02-15 06:41:00,26.2,23.4,30.00,North,355,5.0,11.0,89,0.00,,---,0.00,VWS V14.00,2013-02-15 11:41:00,
2013-02-15 06:42:00,26.2,23.4,30.00,North,360,3.0,11.0,89,0.00,,---,0.00,VWS V14.00,2013-02-15 11:42:00,
2013-02-15 06:45:00,26.2,23.4,30.00,NNW,341,4.0,11.0,89,0.00,,---,0.00,VWS V14.00,2013-02-15 11:45:00,
2013-02-15 06:47:00,26.2,23.1,30.01,NNW,344,3.0,11.0,88,0.00,,---,0.00,VWS V14.00,2013-02-15 11:47:00,
2013-02-15 06:48:00,26.2,23.4,30.01,North,351,5.0,11.0,89,0.00,,---,0.00,VWS V14.00,2013-02-15 11:48:00,
2013-02-15 06:50:00,26.2,23.1,30.01,North,355,3.0,11.0,88,0.00,,---,0.00,VWS V14.00,2013-02-15 11:50:00,
2013-02-15 06:53:00,26.2,23.1,30.01,North,350,4.0,11.0,88,0.00,,---,0.00,VWS V14.00,2013-02-15 11:53:00,
2013-02-15 06:54:00,26.3,23.5,30.01,NNE,14,8.0,11.0,89,0.00,,---,0.00,VWS V14.00,2013-02-15 11:54:00,
2013-02-15 06:55:00,26.3,23.5,30.01,NNE,14,8.0,11.0,89,0.00,,---,0.00,VWS V14.00,2013-02-15 11:55:00,
2013-02-15 06:58:00,26.3,23.2,30.01,North,360,2.0,3.0,88,0.00,,---,0.00,VWS V14.00,2013-02-15 11:58:00,
2013-02-15 06:59:00,26.3,23.2,30.01,North,355,6.0,7.0,88,0.00,,---,0.00,VWS V14.00,2013-02-15 11:59:00,
2013-02-15 07:01:00,26.3,23.2,30.01,North,355,9.0,9.0,88,0.00,,---,0.00,VWS V14.00,2013-02-15 12:01:00,
2013-02-15 07:04:00,26.3,23.2,30.01,NNE,17,8.0,13.0,88,0.00,,---,0.00,VWS V14.00,2013-02-15 12:04:00,
2013-02-15 07:05:00,26.3,23.2,30.01,North,5,9.0,13.0,88,0.00,,---,0.00,VWS V14.00,2013-02-15 12:05:00,
2013-02-15 07:07:00,26.2,23.1,30.02,NNW,341,6.0,13.0,88,0.00,,---,0.00,VWS V14.00,2013-02-15 12:07:00,
2013-02-15 07:09:00,26.2,23.1,30.02,NNE,19,7.0,13.0,88,0.00,,---,0.00,VWS V14.00,2013-02-15 12:09:00,
2013-02-15 07:11:00,26.2,23.1,30.02,North,360,6.0,13.0,88,0.00,,---,0.00,VWS V14.00,2013-02-15 12:11:00,
2013-02-15 07:14:00,26.2,22.9,30.02,North,9,6.0,13.0,87,0.00,,---,0.00,VWS V14.00,2013-02-15 12:14:00,
2013-02-15 07:16:00,26.3,23.0,30.02,North,360,9.0,13.0,87,0.00,,---,0.00,VWS V14.00,2013-02-15 12:16:00,
2013-02-15 07:17:00,26.2,22.9,30.02,NNE,28,6.0,13.0,87,0.00,,---,0.00,VWS V14.00,2013-02-15 12:17:00,
2013-02-15 07:19:00,26.3,23.0,30.02,NNW,342,8.0,13.0,87,0.00,,---,0.00,VWS V14.00,2013-02-15 12:19:00,
2013-02-15 07:21:00,26.2,22.9,30.03,NNW,340,5.0,13.0,87,0.00,,---,0.00,VWS V14.00,2013-02-15 12:21:00,
2013-02-15 07:23:00,26.1,22.8,30.03,NNW,347,2.0,13.0,87,0.00,,---,0.00,VWS V14.00,2013-02-15 12:23:00,
2013-02-15 07:24:00,26.1,22.8,30.03,NNE,13,9.0,13.0,87,0.00,,---,0.00,VWS V14.00,2013-02-15 12:24:00,
2013-02-15 07:28:00,25.9,22.6,30.03,North,5,7.0,13.0,87,0.00,,---,0.00,VWS V14.00,2013-02-15 12:28:00,
2013-02-15 07:29:00,25.9,22.3,30.03,NNW,339,6.0,9.0,86,0.00,,---,0.00,VWS V14.00,2013-02-15 12:29:00,
2013-02-15 07:32:00,25.9,22.3,30.03,NNE,15,6.0,11.0,86,0.00,,---,0.00,VWS V14.00,2013-02-15 12:32:00,
2013-02-15 07:33:00,25.9,22.3,30.03,NNW,327,6.0,11.0,86,0.00,,---,0.00,VWS V14.00,2013-02-15 12:33:00,
2013-02-15 07:34:00,25.8,22.2,30.03,North,360,4.0,11.0,86,0.00,,---,0.00,VWS V14.00,2013-02-15 12:34:00,
2013-02-15 07:37:00,25.8,22.2,30.03,NNE,18,9.0,11.0,86,0.00,,---,0.00,VWS V14.00,2013-02-15 12:37:00,
2013-02-15 07:39:00,25.8,22.2,30.03,NNE,22,7.0,11.0,86,0.00,,---,0.00,VWS V14.00,2013-02-15 12:39:00,
2013-02-15 07:40:00,25.9,22.3,30.03,NNE,20,5.0,11.0,86,0.00,,---,0.00,VWS V14.00,2013-02-15 12:40:00,
2013-02-15 07:44:00,25.8,22.2,30.03,NNW,348,1.0,11.0,86,0.00,,---,0.00,VWS V14.00,2013-02-15 12:44:00,
2013-02-15 07:45:00,25.8,22.2,30.03,NNE,22,5.0,11.0,86,0.00,,---,0.00,VWS V14.00,2013-02-15 12:45:00,
2013-02-15 07:46:00,25.8,22.2,30.03,NNE,18,10.0,11.0,86,0.00,,---,0.00,VWS V14.00,2013-02-15 12:46:00,
2013-02-15 07:50:00,25.7,22.1,30.04,NNW,345,5.0,11.0,86,0.00,,---,0.00,VWS V14.00,2013-02-15 12:50:00,
2013-02-15 07:51:00,25.7,22.1,30.04,NNW,344,5.0,11.0,86,0.00,,---,0.00,VWS V14.00,2013-02-15 12:51:00,
2013-02-15 07:52:00,25.7,22.1,30.04,NNW,348,7.0,11.0,86,0.00,,---,0.00,VWS V14.00,2013-02-15 12:52:00,
2013-02-15 07:57:00,25.4,21.8,30.04,North,355,3.0,11.0,86,0.00,,---,0.00,VWS V14.00,2013-02-15 12:57:00,
2013-02-15 07:58:00,25.4,21.8,30.04,NNW,346,6.0,11.0,86,0.00,,---,0.00,VWS V14.00,2013-02-15 12:58:00,
2013-02-15 08:02:00,25.3,21.7,30.05,NNW,327,6.0,7.0,86,0.00,,---,0.00,VWS V14.00,2013-02-15 13:02:00,
2013-02-15 08:03:00,25.3,21.7,30.05,NNW,328,5.0,7.0,86,0.00,,---,0.00,VWS V14.00,2013-02-15 13:03:00,
2013-02-15 08:04:00,25.3,21.7,30.05,NNW,329,4.0,7.0,86,0.00,,---,0.00,VWS V14.00,2013-02-15 13:04:00,
2013-02-15 08:05:00,25.3,21.7,30.05,NNW,329,6.0,7.0,86,0.00,,---,0.00,VWS V14.00,2013-02-15 13:05:00,
2013-02-15 08:08:00,25.3,21.7,30.05,NNW,330,4.0,7.0,86,0.00,,---,0.00,VWS V14.00,2013-02-15 13:08:00,
2013-02-15 08:10:00,25.3,21.7,30.05,NNW,333,6.0,7.0,86,0.00,,---,0.00,VWS V14.00,2013-02-15 13:10:00,
2013-02-15 08:13:00,25.2,21.6,30.05,NNW,330,4.0,7.0,86,0.00,,---,0.00,VWS V14.00,2013-02-15 13:13:00,
2013-02-15 08:15:00,25.2,21.6,30.05,NNW,331,3.0,7.0,86,0.00,,---,0.00,VWS V14.00,2013-02-15 13:15:00,
2013-02-15 08:16:00,25.3,21.7,30.05,NNW,331,4.0,7.0,86,0.00,,---,0.00,VWS V14.00,2013-02-15 13:16:00,
2013-02-15 08:17:00,25.3,22.0,30.05,NNW,338,6.0,8.0,87,0.00,,---,0.00,VWS V14.00,2013-02-15 13:17:00,
2013-02-15 08:18:00,25.3,22.0,30.06,NNW,341,9.0,9.0,87,0.00,,---,0.00,VWS V14.00,2013-02-15 13:18:00,
2013-02-15 08:20:00,25.2,21.9,30.06,North,355,5.0,11.0,87,0.00,,---,0.00,VWS V14.00,2013-02-15 13:20:00,
2013-02-15 08:21:00,25.2,21.9,30.06,North,360,7.0,11.0,87,0.00,,---,0.00,VWS V14.00,2013-02-15 13:21:00,
2013-02-15 08:24:00,25.3,22.0,30.06,North,355,5.0,11.0,87,0.00,,---,0.00,VWS V14.00,2013-02-15 13:24:00,
2013-02-15 08:25:00,25.3,22.0,30.06,North,360,7.0,11.0,87,0.00,,---,0.00,VWS V14.00,2013-02-15 13:25:00,
2013-02-15 08:26:00,25.2,21.9,30.06,North,360,5.0,11.0,87,0.00,,---,0.00,VWS V14.00,2013-02-15 13:26:00,
2013-02-15 08:29:00,25.3,22.0,30.06,North,351,6.0,6.0,87,0.00,,---,0.00,VWS V14.00,2013-02-15 13:29:00,
2013-02-15 08:30:00,25.3,22.0,30.06,North,9,6.0,6.0,87,0.00,,---,0.00,VWS V14.00,2013-02-15 13:30:00,
2013-02-15 08:32:00,25.4,22.1,30.06,NE,41,7.0,9.0,87,0.00,,---,0.00,VWS V14.00,2013-02-15 13:32:00,
2013-02-15 08:34:00,25.5,22.2,30.06,NNE,24,3.0,9.0,87,0.00,,---,0.00,VWS V14.00,2013-02-15 13:34:00,
2013-02-15 08:36:00,25.5,22.2,30.06,North,5,6.0,9.0,87,0.00,,---,0.00,VWS V14.00,2013-02-15 13:36:00,
2013-02-15 08:37:00,25.4,22.1,30.06,North,360,6.0,9.0,87,0.00,,---,0.00,VWS V14.00,2013-02-15 13:37:00,
2013-02-15 08:39:00,25.3,22.0,30.06,North,11,3.0,9.0,87,0.00,,---,0.00,VWS V14.00,2013-02-15 13:39:00,
2013-02-15 08:42:00,25.3,22.0,30.06,North,11,3.0,9.0,87,0.00,,---,0.00,VWS V14.00,2013-02-15 13:42:00,
2013-02-15 08:43:00,25.3,22.0,30.06,North,11,4.0,9.0,87,0.00,,---,0.00,VWS V14.00,2013-02-15 13:43:00,
2013-02-15 08:44:00,25.4,22.1,30.07,North,360,4.0,9.0,87,0.00,,---,0.00,VWS V14.00,2013-02-15 13:44:00,
2013-02-15 08:45:00,25.3,22.0,30.07,North,360,2.0,9.0,87,0.00,,---,0.00,VWS V14.00,2013-02-15 13:45:00,
2013-02-15 08:48:00,25.4,22.1,30.06,North,360,0.0,9.0,87,0.00,,---,0.00,VWS V14.00,2013-02-15 13:48:00,
2013-02-15 08:49:00,25.5,22.2,30.07,North,5,0.0,9.0,87,0.00,,---,0.00,VWS V14.00,2013-02-15 13:49:00,
2013-02-15 08:50:00,25.6,22.3,30.07,North,360,0.0,9.0,87,0.00,,---,0.00,VWS V14.00,2013-02-15 13:50:00,
2013-02-15 08:53:00,25.6,22.3,30.07,North,360,0.0,9.0,87,0.00,,---,0.00,VWS V14.00,2013-02-15 13:53:00,
2013-02-15 08:54:00,25.6,22.3,30.07,North,360,0.0,9.0,87,0.00,,---,0.00,VWS V14.00,2013-02-15 13:54:00,
2013-02-15 08:55:00,25.7,22.4,30.07,North,5,0.0,9.0,87,0.00,,---,0.00,VWS V14.00,2013-02-15 13:55:00,
2013-02-15 08:57:00,25.9,22.6,30.07,North,5,0.0,9.0,87,0.00,,---,0.00,VWS V14.00,2013-02-15 13:57:00,
2013-02-15 08:58:00,26.1,22.8,30.07,North,5,0.0,0.0,87,0.00,,---,0.00,VWS V14.00,2013-02-15 13:58:00,
2013-02-15 09:00:00,26.3,23.0,30.07,North,5,0.0,0.0,87,0.00,,---,0.00,VWS V14.00,2013-02-15 14:00:00,
2013-02-15 09:04:00,26.6,23.3,30.07,North,5,0.0,0.0,87,0.00,,---,0.00,VWS V14.00,2013-02-15 14:04:00,
2013-02-15 09:06:00,26.5,23.2,30.07,North,360,0.0,0.0,87,0.00,,---,0.00,VWS V14.00,2013-02-15 14:06:00,
2013-02-15 09:09:00,26.4,23.1,30.07,NNE,18,4.0,7.0,87,0.00,,---,0.00,VWS V14.00,2013-02-15 14:09:00,
2013-02-15 09:10:00,26.4,23.1,30.07,NNE,22,5.0,7.0,87,0.00,,---,0.00,VWS V14.00,2013-02-15 14:10:00,
2013-02-15 09:11:00,26.3,22.7,30.07,NNE,16,3.0,7.0,86,0.00,,---,0.00,VWS V14.00,2013-02-15 14:11:00,
2013-02-15 09:14:00,26.2,22.6,30.07,North,355,2.0,10.0,86,0.00,,---,0.00,VWS V14.00,2013-02-15 14:14:00,
2013-02-15 09:16:00,26.2,22.6,30.07,North,360,2.0,10.0,86,0.00,,---,0.00,VWS V14.00,2013-02-15 14:16:00,
2013-02-15 09:17:00,26.3,22.7,30.07,North,360,3.0,10.0,86,0.00,,---,0.00,VWS V14.00,2013-02-15 14:17:00,
2013-02-15 09:20:00,26.5,22.9,30.07,North,360,2.0,10.0,86,0.00,,---,0.00,VWS V14.00,2013-02-15 14:20:00,
2013-02-15 09:22:00,26.6,23.0,30.07,North,9,0.0,10.0,86,0.00,,---,0.00,VWS V14.00,2013-02-15 14:22:00,
2013-02-15 09:26:00,26.9,23.3,30.07,North,9,1.0,10.0,86,0.00,,---,0.00,VWS V14.00,2013-02-15 14:26:00,
2013-02-15 09:28:00,26.9,23.3,30.07,NNE,12,0.0,10.0,86,0.00,,---,0.00,VWS V14.00,2013-02-15 14:28:00,
2013-02-15 09:31:00,26.6,22.7,30.07,North,5,6.0,7.0,85,0.00,,---,0.00,VWS V14.00,2013-02-15 14:31:00,
2013-02-15 09:33:00,26.3,22.4,30.07,North,360,6.0,7.0,85,0.00,,---,0.00,VWS V14.00,2013-02-15 14:33:00,
2013-02-15 09:36:00,26.2,22.3,30.07,NNE,24,5.0,9.0,85,0.00,,---,0.00,VWS V14.00,2013-02-15 14:36:00,
2013-02-15 09:37:00,26.1,22.2,30.07,NNE,24,4.0,9.0,85,0.00,,---,0.00,VWS V14.00,2013-02-15 14:37:00,
2013-02-15 09:38:00,26.1,22.2,30.07,NNE,25,3.0,9.0,85,0.00,,---,0.00,VWS V14.00,2013-02-15 14:38:00,
2013-02-15 09:41:00,26.2,22.3,30.07,North,10,0.0,9.0,85,0.00,,---,0.00,VWS V14.00,2013-02-15 14:41:00,
2013-02-15 09:42:00,26.2,22.3,30.07,North,9,0.0,9.0,85,0.00,,---,0.00,VWS V14.00,2013-02-15 14:42:00,
2013-02-15 09:43:00,26.2,22.3,30.08,North,360,0.0,9.0,85,0.00,,---,0.00,VWS V14.00,2013-02-15 14:43:00,
2013-02-15 09:44:00,26.3,22.4,30.08,North,360,0.0,9.0,85,0.00,,---,0.00,VWS V14.00,2013-02-15 14:44:00,
2013-02-15 09:46:00,26.4,22.5,30.08,North,355,0.0,9.0,85,0.00,,---,0.00,VWS V14.00,2013-02-15 14:46:00,
2013-02-15 09:48:00,26.5,22.6,30.08,North,355,0.0,9.0,85,0.00,,---,0.00,VWS V14.00,2013-02-15 14:48:00,
2013-02-15 09:49:00,26.5,22.6,30.08,North,355,0.0,9.0,85,0.00,,---,0.00,VWS V14.00,2013-02-15 14:49:00,
2013-02-15 09:53:00,26.7,22.8,30.08,NNW,348,6.0,9.0,85,0.00,,---,0.00,VWS V14.00,2013-02-15 14:53:00,
2013-02-15 09:54:00,26.7,22.8,30.08,NNW,348,5.0,9.0,85,0.00,,---,0.00,VWS V14.00,2013-02-15 14:54:00,
2013-02-15 09:57:00,26.3,22.1,30.08,NNW,348,9.0,11.0,84,0.00,,---,0.00,VWS V14.00,2013-02-15 14:57:00,
2013-02-15 09:58:00,26.2,22.0,30.08,North,355,3.0,4.0,84,0.00,,---,0.00,VWS V14.00,2013-02-15 14:58:00,
2013-02-15 09:59:00,26.2,22.0,30.09,North,355,4.0,6.0,84,0.00,,---,0.00,VWS V14.00,2013-02-15 14:59:00,
2013-02-15 10:00:00,26.2,22.0,30.09,North,355,10.0,11.0,84,0.00,,---,0.00,VWS V14.00,2013-02-15 15:00:00,
2013-02-15 10:03:00,26.2,22.0,30.08,North,355,5.0,11.0,84,0.00,,---,0.00,VWS V14.00,2013-02-15 15:03:00,
2013-02-15 10:05:00,26.2,22.0,30.08,North,5,6.0,11.0,84,0.00,,---,0.00,VWS V14.00,2013-02-15 15:05:00,
2013-02-15 10:07:00,26.3,22.1,30.08,North,10,6.0,11.0,84,0.00,,---,0.00,VWS V14.00,2013-02-15 15:07:00,
2013-02-15 10:08:00,26.4,22.2,30.08,North,360,7.0,11.0,84,0.00,,---,0.00,VWS V14.00,2013-02-15 15:08:00,
2013-02-15 10:11:00,26.2,22.0,30.08,NNE,14,9.0,12.0,84,0.00,,---,0.00,VWS V14.00,2013-02-15 15:11:00,
2013-02-15 10:12:00,26.2,21.8,30.08,NNE,14,4.0,12.0,83,0.00,,---,0.00,VWS V14.00,2013-02-15 15:12:00,
2013-02-15 10:16:00,26.4,22.0,30.08,North,360,7.0,12.0,83,0.00,,---,0.00,VWS V14.00,2013-02-15 15:16:00,
2013-02-15 10:17:00,26.4,22.0,30.08,NNE,26,5.0,12.0,83,0.00,,---,0.00,VWS V14.00,2013-02-15 15:17:00,
2013-02-15 10:18:00,26.5,22.0,30.08,North,360,7.0,12.0,83,0.00,,---,0.00,VWS V14.00,2013-02-15 15:18:00,
2013-02-15 10:21:00,26.6,22.1,30.08,NNW,346,6.0,12.0,83,0.00,,---,0.00,VWS V14.00,2013-02-15 15:21:00,
2013-02-15 10:23:00,26.7,22.2,30.08,North,355,3.0,12.0,83,0.00,,---,0.00,VWS V14.00,2013-02-15 15:23:00,
2013-02-15 10:24:00,26.8,22.3,30.08,North,355,4.0,12.0,83,0.00,,---,0.00,VWS V14.00,2013-02-15 15:24:00,
2013-02-15 10:28:00,27.3,22.8,30.08,NNW,346,4.0,12.0,83,0.00,,---,0.00,VWS V14.00,2013-02-15 15:28:00,
2013-02-15 10:29:00,27.3,22.8,30.09,NNW,343,2.0,5.0,83,0.00,,---,0.00,VWS V14.00,2013-02-15 15:29:00,
2013-02-15 10:32:00,27.3,22.5,30.09,NNW,338,0.0,5.0,82,0.00,,---,0.00,VWS V14.00,2013-02-15 15:32:00,
2013-02-15 10:35:00,27.1,22.4,30.08,NNW,338,2.0,10.0,82,0.00,,---,0.00,VWS V14.00,2013-02-15 15:35:00,
2013-02-15 10:36:00,27.1,22.4,30.08,NNW,342,2.0,10.0,82,0.00,,---,0.00,VWS V14.00,2013-02-15 15:36:00,
2013-02-15 10:38:00,27.1,22.4,30.08,North,5,3.0,10.0,82,0.01,,---,0.01,VWS V14.00,2013-02-15 15:38:00,
2013-02-15 10:41:00,27.0,22.2,30.08,NNW,338,4.0,10.0,82,0.01,,---,0.01,VWS V14.00,2013-02-15 15:41:00,
2013-02-15 10:42:00,27.0,22.2,30.08,NNW,336,10.0,10.0,82,0.01,,---,0.01,VWS V14.00,2013-02-15 15:42:00,
2013-02-15 10:43:00,26.9,22.1,30.08,NNW,348,10.0,11.0,82,0.01,,---,0.01,VWS V14.00,2013-02-15 15:43:00,
2013-02-15 10:46:00,26.9,21.9,30.08,North,360,7.0,11.0,81,0.01,,---,0.01,VWS V14.00,2013-02-15 15:46:00,
2013-02-15 10:47:00,26.8,21.8,30.08,NNW,344,6.0,11.0,81,0.01,,---,0.01,VWS V14.00,2013-02-15 15:47:00,
2013-02-15 10:48:00,26.8,21.8,30.08,NNW,340,4.0,11.0,81,0.01,,---,0.01,VWS V14.00,2013-02-15 15:48:00,
2013-02-15 10:50:00,26.9,21.9,30.08,NNE,28,12.0,12.0,81,0.01,,---,0.01,VWS V14.00,2013-02-15 15:50:00,
2013-02-15 10:52:00,26.8,21.8,30.08,NNW,348,8.0,12.0,81,0.01,,---,0.01,VWS V14.00,2013-02-15 15:52:00,
2013-02-15 10:53:00,26.8,21.8,30.08,NNW,329,6.0,12.0,81,0.01,,---,0.01,VWS V14.00,2013-02-15 15:53:00,
2013-02-15 10:56:00,26.7,21.7,30.08,North,350,13.0,17.0,81,0.01,,---,0.01,VWS V14.00,2013-02-15 15:56:00,
2013-02-15 10:58:00,26.6,21.3,30.09,NW,326,14.0,17.0,80,0.01,,---,0.01,VWS V14.00,2013-02-15 15:58:00,
2013-02-15 11:01:00,26.5,21.2,30.09,NNW,331,7.0,12.0,80,0.01,,---,0.01,VWS V14.00,2013-02-15 16:01:00,
2013-02-15 11:03:00,26.5,21.2,30.09,North,360,7.0,12.0,80,0.01,,---,0.01,VWS V14.00,2013-02-15 16:03:00,
2013-02-15 11:04:00,26.5,21.2,30.09,NNW,331,8.0,12.0,80,0.01,,---,0.01,VWS V14.00,2013-02-15 16:04:00,
2013-02-15 11:08:00,26.5,21.5,30.09,NNW,338,9.0,12.0,81,0.01,,---,0.01,VWS V14.00,2013-02-15 16:08:00,
2013-02-15 11:09:00,26.5,21.5,30.09,NNW,341,10.0,12.0,81,0.01,,---,0.01,VWS V14.00,2013-02-15 16:09:00,
2013-02-15 11:13:00,26.5,21.5,30.09,NNE,20,8.0,13.0,81,0.02,,---,0.02,VWS V14.00,2013-02-15 16:13:00,
2013-02-15 11:14:00,26.5,21.5,30.09,North,360,4.0,13.0,81,0.02,,---,0.02,VWS V14.00,2013-02-15 16:14:00,
2013-02-15 11:15:00,26.5,21.5,30.09,NNE,25,6.0,13.0,81,0.02,,---,0.02,VWS V14.00,2013-02-15 16:15:00,
2013-02-15 11:18:00,26.6,21.6,30.09,North,350,5.0,13.0,81,0.02,,---,0.02,VWS V14.00,2013-02-15 16:18:00,
2013-02-15 11:19:00,26.6,21.6,30.09,North,350,5.0,13.0,81,0.02,,---,0.02,VWS V14.00,2013-02-15 16:19:00,
2013-02-15 11:22:00,26.6,21.6,30.09,NNE,12,7.0,13.0,81,0.02,,---,0.02,VWS V14.00,2013-02-15 16:22:00,
2013-02-15 11:24:00,26.6,21.6,30.09,North,360,6.0,13.0,81,0.02,,---,0.02,VWS V14.00,2013-02-15 16:24:00,
2013-02-15 11:25:00,26.6,21.6,30.09,North,360,4.0,13.0,81,0.02,,---,0.02,VWS V14.00,2013-02-15 16:25:00,
2013-02-15 11:27:00,26.7,21.7,30.09,North,350,5.0,13.0,81,0.02,,---,0.02,VWS V14.00,2013-02-15 16:27:00,
2013-02-15 11:30:00,26.8,21.8,30.09,NNW,346,5.0,11.0,81,0.02,,---,0.02,VWS V14.00,2013-02-15 16:30:00,
2013-02-15 11:32:00,26.8,21.8,30.09,NNE,18,7.0,11.0,81,0.02,,---,0.02,VWS V14.00,2013-02-15 16:32:00,
2013-02-15 11:34:00,27.0,22.0,30.09,North,350,9.0,11.0,81,0.02,,---,0.02,VWS V14.00,2013-02-15 16:34:00,
2013-02-15 11:35:00,27.2,22.1,30.09,North,355,4.0,11.0,81,0.02,,---,0.02,VWS V14.00,2013-02-15 16:35:00,
2013-02-15 11:37:00,27.4,22.4,30.09,North,5,4.0,11.0,81,0.02,,---,0.02,VWS V14.00,2013-02-15 16:37:00,
2013-02-15 11:39:00,27.5,22.5,30.09,NNW,344,4.0,11.0,81,0.02,,---,0.02,VWS V14.00,2013-02-15 16:39:00,
2013-02-15 11:40:00,27.6,22.2,30.09,North,349,7.0,11.0,80,0.02,,---,0.02,VWS V14.00,2013-02-15 16:40:00,
2013-02-15 11:42:00,27.6,22.2,30.09,North,349,5.0,11.0,80,0.02,,---,0.02,VWS V14.00,2013-02-15 16:42:00,
2013-02-15 11:44:00,27.6,22.2,30.09,NNE,17,11.0,11.0,80,0.02,,---,0.02,VWS V14.00,2013-02-15 16:44:00,
2013-02-15 11:45:00,27.5,22.1,30.09,North,360,3.0,12.0,80,0.02,,---,0.02,VWS V14.00,2013-02-15 16:45:00,
2013-02-15 11:46:00,27.5,22.1,30.09,North,355,10.0,12.0,80,0.02,,---,0.02,VWS V14.00,2013-02-15 16:46:00,
2013-02-15 11:48:00,27.3,22.0,30.09,NNE,19,10.0,12.0,80,0.02,,---,0.02,VWS V14.00,2013-02-15 16:48:00,
2013-02-15 11:51:00,27.0,21.7,30.09,North,350,10.0,13.0,80,0.02,,---,0.02,VWS V14.00,2013-02-15 16:51:00,
2013-02-15 11:52:00,27.0,21.7,30.09,North,11,7.0,13.0,80,0.02,,---,0.02,VWS V14.00,2013-02-15 16:52:00,
2013-02-15 11:53:00,27.0,21.7,30.09,NNW,341,6.0,13.0,80,0.02,,---,0.02,VWS V14.00,2013-02-15 16:53:00,
2013-02-15 11:55:00,27.0,21.7,30.09,NNW,342,9.0,13.0,80,0.02,,---,0.02,VWS V14.00,2013-02-15 16:55:00,
2013-02-15 11:56:00,27.0,21.7,30.09,NNW,340,7.0,13.0,80,0.02,,---,0.02,VWS V14.00,2013-02-15 16:56:00,
2013-02-15 11:58:00,27.0,21.7,30.09,NNW,337,6.0,13.0,80,0.02,,---,0.02,VWS V14.00,2013-02-15 16:58:00,
2013-02-15 12:00:00,27.2,21.9,30.09,NNE,13,5.0,7.0,80,0.01,,---,0.02,VWS V14.00,2013-02-15 17:00:00,
2013-02-15 12:01:00,27.3,22.2,30.09,North,355,9.0,10.0,81,0.01,,---,0.02,VWS V14.00,2013-02-15 17:01:00,
2013-02-15 12:03:00,27.4,22.0,30.09,NW,323,7.0,11.0,80,0.01,,---,0.02,VWS V14.00,2013-02-15 17:03:00,
2013-02-15 12:04:00,27.4,22.0,30.09,North,360,5.0,11.0,80,0.01,,---,0.02,VWS V14.00,2013-02-15 17:04:00,
2013-02-15 12:06:00,27.3,21.7,30.09,NNW,346,0.0,11.0,79,0.01,,---,0.02,VWS V14.00,2013-02-15 17:06:00,
2013-02-15 12:07:00,27.4,21.8,30.09,North,355,2.0,11.0,79,0.01,,---,0.02,VWS V14.00,2013-02-15 17:07:00,
2013-02-15 12:08:00,27.4,21.8,30.09,NNW,341,2.0,11.0,79,0.01,,---,0.02,VWS V14.00,2013-02-15 17:08:00,
2013-02-15 12:11:00,27.4,21.8,30.09,NNW,341,4.0,11.0,79,0.01,,---,0.02,VWS V14.00,2013-02-15 17:11:00,
2013-02-15 12:12:00,27.4,21.8,30.09,NNW,338,8.0,11.0,79,0.01,,---,0.02,VWS V14.00,2013-02-15 17:12:00,
2013-02-15 12:14:00,27.4,21.8,30.09,NW,325,5.0,11.0,79,0.01,,---,0.02,VWS V14.00,2013-02-15 17:14:00,
2013-02-15 12:15:00,27.4,21.8,30.09,NNW,329,6.0,11.0,79,0.01,,---,0.02,VWS V14.00,2013-02-15 17:15:00,
2013-02-15 12:17:00,27.3,21.4,30.09,North,360,7.0,11.0,78,0.01,,---,0.02,VWS V14.00,2013-02-15 17:17:00,
2013-02-15 12:18:00,27.3,21.4,30.09,North,360,3.0,11.0,78,0.01,,---,0.02,VWS V14.00,2013-02-15 17:18:00,
2013-02-15 12:20:00,27.6,22.0,30.09,North,355,9.0,11.0,79,0.01,,---,0.02,VWS V14.00,2013-02-15 17:20:00,
2013-02-15 12:22:00,27.7,21.8,30.09,NW,304,9.0,11.0,78,0.01,,---,0.02,VWS V14.00,2013-02-15 17:22:00,
2013-02-15 12:23:00,27.8,21.9,30.09,NNW,340,6.0,11.0,78,0.01,,---,0.02,VWS V14.00,2013-02-15 17:23:00,
2013-02-15 12:24:00,27.9,21.6,30.09,NNW,338,5.0,11.0,77,0.01,,---,0.02,VWS V14.00,2013-02-15 17:24:00,
2013-02-15 12:25:00,28.0,21.7,30.09,North,360,6.0,11.0,77,0.01,,---,0.02,VWS V14.00,2013-02-15 17:25:00,
2013-02-15 12:27:00,28.0,21.7,30.09,NNW,333,3.0,11.0,77,0.01,,---,0.02,VWS V14.00,2013-02-15 17:27:00,
2013-02-15 12:28:00,28.0,21.4,30.09,NW,318,7.0,11.0,76,0.01,,---,0.02,VWS V14.00,2013-02-15 17:28:00,
2013-02-15 12:30:00,27.9,21.3,30.09,NNW,337,5.0,10.0,76,0.00,,---,0.02,VWS V14.00,2013-02-15 17:30:00,
2013-02-15 12:31:00,27.9,21.3,30.09,NW,319,12.0,12.0,76,0.00,,---,0.02,VWS V14.00,2013-02-15 17:31:00,
2013-02-15 12:32:00,27.9,21.3,30.09,NNW,337,9.0,12.0,76,0.00,,---,0.02,VWS V14.00,2013-02-15 17:32:00,
2013-02-15 12:33:00,27.9,21.3,30.09,WNW,294,3.0,12.0,76,0.00,,---,0.02,VWS V14.00,2013-02-15 17:33:00,
2013-02-15 12:35:00,27.9,21.0,30.09,North,11,10.0,12.0,75,0.00,,---,0.02,VWS V14.00,2013-02-15 17:35:00,
2013-02-15 12:37:00,27.9,21.0,30.09,WNW,292,6.0,12.0,75,0.00,,---,0.02,VWS V14.00,2013-02-15 17:37:00,
2013-02-15 12:39:00,28.0,21.1,30.09,North,360,13.0,15.0,75,0.01,,---,0.03,VWS V14.00,2013-02-15 17:39:00,
2013-02-15 12:40:00,28.0,21.1,30.09,North,349,11.0,15.0,75,0.01,,---,0.03,VWS V14.00,2013-02-15 17:40:00,
2013-02-15 12:42:00,27.9,20.7,30.09,North,9,13.0,15.0,74,0.01,,---,0.03,VWS V14.00,2013-02-15 17:42:00,
2013-02-15 12:43:00,27.9,20.7,30.09,North,355,6.0,15.0,74,0.01,,---,0.03,VWS V14.00,2013-02-15 17:43:00,
2013-02-15 12:45:00,28.0,20.8,30.09,NNW,328,10.0,15.0,74,0.01,,---,0.03,VWS V14.00,2013-02-15 17:45:00,
2013-02-15 12:48:00,27.9,20.7,30.09,NNW,333,4.0,15.0,74,0.01,,---,0.03,VWS V14.00,2013-02-15 17:48:00,
2013-02-15 12:51:00,28.1,20.9,30.09,NW,325,8.0,15.0,74,0.01,,---,0.03,VWS V14.00,2013-02-15 17:51:00,
2013-02-15 12:55:00,28.1,20.6,30.09,NNW,337,2.0,15.0,73,0.01,,---,0.03,VWS V14.00,2013-02-15 17:55:00,
2013-02-15 12:57:00,28.3,21.1,30.09,NNE,30,9.0,15.0,74,0.01,,---,0.03,VWS V14.00,2013-02-15 17:57:00,
2013-02-15 12:59:00,28.4,21.5,30.09,North,10,10.0,13.0,75,0.01,,---,0.03,VWS V14.00,2013-02-15 17:59:00,
2013-02-15 13:00:00,28.4,21.5,30.09,NNW,341,7.0,13.0,75,0.01,,---,0.03,VWS V14.00,2013-02-15 18:00:00,
2013-02-15 13:02:00,28.3,21.4,30.09,NNE,17,10.0,15.0,75,0.01,,---,0.03,VWS V14.00,2013-02-15 18:02:00,
2013-02-15 13:04:00,28.1,20.9,30.09,NNW,342,7.0,15.0,74,0.01,,---,0.03,VWS V14.00,2013-02-15 18:04:00,
2013-02-15 13:05:00,28.0,20.8,30.09,North,5,6.0,15.0,74,0.01,,---,0.03,VWS V14.00,2013-02-15 18:05:00,
2013-02-15 13:07:00,28.0,20.8,30.09,NNW,331,5.0,15.0,74,0.01,,---,0.03,VWS V14.00,2013-02-15 18:07:00,
2013-02-15 13:08:00,28.0,20.8,30.09,North,360,2.0,15.0,74,0.01,,---,0.03,VWS V14.00,2013-02-15 18:08:00,
2013-02-15 13:10:00,28.0,21.1,30.09,NNW,342,2.0,15.0,75,0.01,,---,0.03,VWS V14.00,2013-02-15 18:10:00,
2013-02-15 13:12:00,28.1,21.2,30.09,NW,317,6.0,15.0,75,0.01,,---,0.03,VWS V14.00,2013-02-15 18:12:00,
2013-02-15 13:16:00,27.8,20.6,30.09,NW,325,11.0,15.0,74,0.01,,---,0.03,VWS V14.00,2013-02-15 18:16:00,
2013-02-15 13:17:00,27.9,20.7,30.09,NNW,340,7.0,15.0,74,0.01,,---,0.03,VWS V14.00,2013-02-15 18:17:00,
2013-02-15 13:18:00,27.9,21.0,30.09,NNW,345,5.0,15.0,75,0.01,,---,0.03,VWS V14.00,2013-02-15 18:18:00,
2013-02-15 13:21:00,27.8,20.9,30.09,North,349,5.0,15.0,75,0.01,,---,0.03,VWS V14.00,2013-02-15 18:21:00,
2013-02-15 13:22:00,27.8,20.9,30.09,NNW,339,5.0,15.0,75,0.01,,---,0.03,VWS V14.00,2013-02-15 18:22:00,
2013-02-15 13:25:00,27.7,20.8,30.09,NNW,340,4.0,15.0,75,0.01,,---,0.03,VWS V14.00,2013-02-15 18:25:00,
2013-02-15 13:26:00,27.7,20.8,30.09,NNW,338,6.0,15.0,75,0.01,,---,0.03,VWS V14.00,2013-02-15 18:26:00,
2013-02-15 13:27:00,27.6,20.7,30.09,NNE,21,5.0,15.0,75,0.01,,---,0.03,VWS V14.00,2013-02-15 18:27:00,
2013-02-15 13:28:00,27.6,20.7,30.09,North,5,7.0,7.0,75,0.01,,---,0.03,VWS V14.00,2013-02-15 18:28:00,
2013-02-15 13:30:00,27.6,20.7,30.09,North,355,4.0,11.0,75,0.01,,---,0.03,VWS V14.00,2013-02-15 18:30:00,
2013-02-15 13:32:00,27.8,20.9,30.09,North,350,4.0,11.0,75,0.01,,---,0.03,VWS V14.00,2013-02-15 18:32:00,
2013-02-15 13:33:00,27.8,20.9,30.09,North,350,4.0,11.0,75,0.01,,---,0.03,VWS V14.00,2013-02-15 18:33:00,
2013-02-15 13:34:00,27.9,21.0,30.09,NNW,343,5.0,11.0,75,0.01,,---,0.03,VWS V14.00,2013-02-15 18:34:00,
2013-02-15 13:36:00,28.0,21.1,30.09,NNW,336,9.0,11.0,75,0.01,,---,0.03,VWS V14.00,2013-02-15 18:36:00,
2013-02-15 13:38:00,28.1,20.9,30.09,NW,310,9.0,11.0,74,0.01,,---,0.03,VWS V14.00,2013-02-15 18:38:00,
2013-02-15 13:39:00,28.1,20.9,30.09,NW,322,4.0,11.0,74,0.01,,---,0.03,VWS V14.00,2013-02-15 18:39:00,
2013-02-15 13:43:00,28.3,21.1,30.09,WNW,300,5.0,11.0,74,0.01,,---,0.03,VWS V14.00,2013-02-15 18:43:00,
2013-02-15 13:46:00,28.3,20.8,30.09,NNW,345,4.0,11.0,73,0.01,,---,0.03,VWS V14.00,2013-02-15 18:46:00,
2013-02-15 13:49:00,28.0,20.5,30.09,NNW,343,4.0,12.0,73,0.01,,---,0.03,VWS V14.00,2013-02-15 18:49:00,
2013-02-15 13:51:00,28.0,20.8,30.09,North,360,9.0,13.0,74,0.01,,---,0.03,VWS V14.00,2013-02-15 18:51:00,
2013-02-15 13:54:00,28.0,21.1,30.09,North,9,4.0,13.0,75,0.01,,---,0.03,VWS V14.00,2013-02-15 18:54:00,
2013-02-15 13:56:00,28.0,21.4,30.09,North,355,5.0,13.0,76,0.01,,---,0.03,VWS V14.00,2013-02-15 18:56:00,
2013-02-15 13:58:00,27.8,20.9,30.09,NNW,333,6.0,13.0,75,0.01,,---,0.03,VWS V14.00,2013-02-15 18:58:00,
2013-02-15 13:59:00,27.8,20.9,30.09,NNW,335,3.0,6.0,75,0.00,,---,0.03,VWS V14.00,2013-02-15 18:59:00,
2013-02-15 14:00:00,27.8,20.9,30.09,NNW,335,3.0,6.0,75,0.00,,---,0.03,VWS V14.00,2013-02-15 19:00:00,
2013-02-15 14:03:00,28.0,21.4,30.08,NE,34,5.0,9.0,76,0.00,,---,0.03,VWS V14.00,2013-02-15 19:03:00,
2013-02-15 14:04:00,28.2,21.3,30.09,North,5,6.0,11.0,75,0.00,,---,0.03,VWS V14.00,2013-02-15 19:04:00,
2013-02-15 14:05:00,28.2,21.3,30.09,North,9,5.0,11.0,75,0.00,,---,0.03,VWS V14.00,2013-02-15 19:05:00,
2013-02-15 14:10:00,29.0,21.1,30.08,NNW,331,9.0,16.0,72,0.00,,---,0.03,VWS V14.00,2013-02-15 19:10:00,
2013-02-15 14:11:00,28.9,20.7,30.08,WNW,301,7.0,16.0,71,0.00,,---,0.03,VWS V14.00,2013-02-15 19:11:00,
2013-02-15 14:16:00,28.9,20.4,30.08,NW,318,9.0,16.0,70,0.00,,---,0.03,VWS V14.00,2013-02-15 19:16:00,
2013-02-15 14:17:00,28.9,20.4,30.08,NW,315,6.0,16.0,70,0.00,,---,0.03,VWS V14.00,2013-02-15 19:17:00,
2013-02-15 14:19:00,28.8,20.3,30.08,WNW,298,3.0,16.0,70,0.00,,---,0.03,VWS V14.00,2013-02-15 19:19:00,
2013-02-15 14:22:00,28.9,20.4,30.08,NW,309,7.0,16.0,70,0.00,,---,0.03,VWS V14.00,2013-02-15 19:22:00,
2013-02-15 14:23:00,28.9,20.4,30.08,NNW,338,9.0,16.0,70,0.00,,---,0.03,VWS V14.00,2013-02-15 19:23:00,
2013-02-15 14:25:00,28.7,20.2,30.08,NW,309,8.0,16.0,70,0.00,,---,0.03,VWS V14.00,2013-02-15 19:25:00,
2013-02-15 14:28:00,28.5,20.0,30.09,WNW,302,6.0,16.0,70,0.00,,---,0.03,VWS V14.00,2013-02-15 19:28:00,
2013-02-15 14:29:00,28.5,20.3,30.08,NW,317,7.0,12.0,71,0.00,,---,0.03,VWS V14.00,2013-02-15 19:29:00,
2013-02-15 14:31:00,28.4,20.2,30.09,NNW,329,7.0,12.0,71,0.00,,---,0.03,VWS V14.00,2013-02-15 19:31:00,
2013-02-15 14:33:00,28.3,20.1,30.09,WNW,299,6.0,13.0,71,0.01,,---,0.04,VWS V14.00,2013-02-15 19:33:00,
2013-02-15 14:34:00,28.3,20.4,30.08,WNW,288,5.0,13.0,72,0.01,,---,0.04,VWS V14.00,2013-02-15 19:34:00,
2013-02-15 14:36:00,28.3,20.4,30.09,NW,315,14.0,14.0,72,0.01,,---,0.04,VWS V14.00,2013-02-15 19:36:00,
2013-02-15 14:38:00,28.2,20.7,30.09,NW,315,6.0,14.0,73,0.01,,---,0.04,VWS V14.00,2013-02-15 19:38:00,
2013-02-15 14:39:00,28.2,20.7,30.09,NW,315,10.0,14.0,73,0.01,,---,0.04,VWS V14.00,2013-02-15 19:39:00,
2013-02-15 14:41:00,28.1,20.6,30.09,WNW,294,12.0,14.0,73,0.01,,---,0.04,VWS V14.00,2013-02-15 19:41:00,
2013-02-15 14:42:00,28.1,20.2,30.09,NNW,333,5.0,16.0,72,0.01,,---,0.04,VWS V14.00,2013-02-15 19:42:00,
2013-02-15 14:43:00,28.0,20.2,30.09,NNW,329,7.0,16.0,72,0.01,,---,0.04,VWS V14.00,2013-02-15 19:43:00,
2013-02-15 14:44:00,28.0,20.2,30.09,WNW,294,9.0,16.0,72,0.01,,---,0.04,VWS V14.00,2013-02-15 19:44:00,
2013-02-15 14:47:00,28.0,20.2,30.09,NW,319,5.0,16.0,72,0.01,,---,0.04,VWS V14.00,2013-02-15 19:47:00,
2013-02-15 14:49:00,28.0,19.8,30.09,NW,314,6.0,16.0,71,0.01,,---,0.04,VWS V14.00,2013-02-15 19:49:00,
2013-02-15 14:50:00,28.0,19.8,30.09,NW,317,7.0,16.0,71,0.01,,---,0.04,VWS V14.00,2013-02-15 19:50:00,
2013-02-15 14:52:00,28.0,19.8,30.09,WNW,302,6.0,16.0,71,0.01,,---,0.04,VWS V14.00,2013-02-15 19:52:00,
2013-02-15 14:53:00,28.1,19.6,30.09,WNW,303,5.0,16.0,70,0.01,,---,0.04,VWS V14.00,2013-02-15 19:53:00,
2013-02-15 14:55:00,28.1,19.3,30.09,North,355,5.0,16.0,69,0.01,,---,0.04,VWS V14.00,2013-02-15 19:55:00,
2013-02-15 14:57:00,28.0,19.2,30.09,NNW,331,6.0,16.0,69,0.01,,---,0.04,VWS V14.00,2013-02-15 19:57:00,
2013-02-15 14:58:00,28.1,19.3,30.09,NW,306,3.0,16.0,69,0.01,,---,0.04,VWS V14.00,2013-02-15 19:58:00,
2013-02-15 15:01:00,28.1,19.3,30.09,NW,326,11.0,17.0,69,0.01,,---,0.04,VWS V14.00,2013-02-15 20:01:00,
2013-02-15 15:02:00,28.0,18.8,30.09,North,355,5.0,17.0,68,0.01,,---,0.04,VWS V14.00,2013-02-15 20:02:00,
2013-02-15 15:03:00,28.0,18.8,30.09,NNW,334,9.0,17.0,68,0.01,,---,0.04,VWS V14.00,2013-02-15 20:03:00,
2013-02-15 15:04:00,28.0,18.8,30.09,North,349,9.0,17.0,68,0.01,,---,0.04,VWS V14.00,2013-02-15 20:04:00,
2013-02-15 15:06:00,28.0,18.8,30.09,NNW,342,9.0,17.0,68,0.01,,---,0.04,VWS V14.00,2013-02-15 20:06:00,
2013-02-15 15:08:00,28.0,18.8,30.09,NNW,341,3.0,17.0,68,0.01,,---,0.04,VWS V14.00,2013-02-15 20:08:00,
2013-02-15 15:10:00,28.0,18.8,30.09,NNW,333,9.0,17.0,68,0.01,,---,0.04,VWS V14.00,2013-02-15 20:10:00,
2013-02-15 15:11:00,28.0,18.5,30.09,NNW,337,6.0,17.0,67,0.01,,---,0.04,VWS V14.00,2013-02-15 20:11:00,
2013-02-15 15:12:00,28.0,18.5,30.09,North,350,5.0,17.0,67,0.01,,---,0.04,VWS V14.00,2013-02-15 20:12:00,
2013-02-15 15:14:00,28.0,18.8,30.09,NW,313,11.0,17.0,68,0.01,,---,0.04,VWS V14.00,2013-02-15 20:14:00,
2013-02-15 15:16:00,28.0,18.8,30.09,NW,312,12.0,17.0,68,0.01,,---,0.04,VWS V14.00,2013-02-15 20:16:00,
2013-02-15 15:17:00,28.0,18.8,30.09,North,349,13.0,17.0,68,0.01,,---,0.04,VWS V14.00,2013-02-15 20:17:00,
2013-02-15 15:21:00,27.8,19.0,30.09,NNW,329,6.0,17.0,69,0.01,,---,0.04,VWS V14.00,2013-02-15 20:21:00,
2013-02-15 15:22:00,27.8,19.3,30.09,NW,308,7.0,17.0,70,0.01,,---,0.04,VWS V14.00,2013-02-15 20:22:00,
2013-02-15 15:24:00,27.8,19.3,30.09,WNW,303,2.0,17.0,70,0.01,,---,0.04,VWS V14.00,2013-02-15 20:24:00,
2013-02-15 15:27:00,27.7,19.2,30.09,NNE,22,6.0,17.0,70,0.01,,---,0.04,VWS V14.00,2013-02-15 20:27:00,
2013-02-15 15:30:00,27.6,19.4,30.09,NNW,335,3.0,12.0,71,0.01,,---,0.04,VWS V14.00,2013-02-15 20:30:00,
2013-02-15 15:32:00,27.6,19.4,30.09,North,355,14.0,15.0,71,0.01,,---,0.04,VWS V14.00,2013-02-15 20:32:00,
2013-02-15 15:33:00,27.5,19.4,30.09,NNW,330,9.0,15.0,71,0.01,,---,0.04,VWS V14.00,2013-02-15 20:33:00,
2013-02-15 15:34:00,27.5,19.4,30.09,NNW,343,12.0,15.0,71,0.01,,---,0.04,VWS V14.00,2013-02-15 20:34:00,
2013-02-15 15:35:00,27.5,19.4,30.09,NNW,343,11.0,15.0,71,0.01,,---,0.04,VWS V14.00,2013-02-15 20:35:00,
2013-02-15 15:38:00,27.4,19.2,30.10,North,360,7.0,15.0,71,0.01,,---,0.04,VWS V14.00,2013-02-15 20:38:00,
2013-02-15 15:39:00,27.4,19.2,30.09,North,360,5.0,15.0,71,0.01,,---,0.04,VWS V14.00,2013-02-15 20:39:00,
2013-02-15 15:40:00,27.4,19.6,30.09,NNW,346,4.0,15.0,72,0.01,,---,0.04,VWS V14.00,2013-02-15 20:40:00,
2013-02-15 15:43:00,27.6,19.8,30.09,NNW,339,7.0,15.0,72,0.01,,---,0.04,VWS V14.00,2013-02-15 20:43:00,
2013-02-15 15:45:00,27.7,19.9,30.09,NNW,346,7.0,15.0,72,0.01,,---,0.04,VWS V14.00,2013-02-15 20:45:00,
2013-02-15 15:46:00,27.7,19.9,30.09,NNW,341,6.0,15.0,72,0.01,,---,0.04,VWS V14.00,2013-02-15 20:46:00,
2013-02-15 15:48:00,27.8,20.0,30.09,NW,322,6.0,15.0,72,0.01,,---,0.04,VWS V14.00,2013-02-15 20:48:00,
2013-02-15 15:50:00,27.8,20.0,30.09,NW,321,4.0,15.0,72,0.01,,---,0.04,VWS V14.00,2013-02-15 20:50:00,
2013-02-15 15:51:00,27.9,20.1,30.09,NNW,334,10.0,15.0,72,0.01,,---,0.04,VWS V14.00,2013-02-15 20:51:00,
2013-02-15 15:52:00,27.9,19.7,30.10,NW,323,3.0,15.0,71,0.01,,---,0.04,VWS V14.00,2013-02-15 20:52:00,
2013-02-15 15:54:00,28.0,19.8,30.10,NW,319,4.0,15.0,71,0.01,,---,0.04,VWS V14.00,2013-02-15 20:54:00,
2013-02-15 15:55:00,28.2,20.0,30.10,NNW,329,5.0,15.0,71,0.01,,---,0.04,VWS V14.00,2013-02-15 20:55:00,
2013-02-15 15:56:00,28.4,19.9,30.10,NW,314,6.0,15.0,70,0.01,,---,0.04,VWS V14.00,2013-02-15 20:56:00,
2013-02-15 15:58:00,28.7,20.2,30.10,NNW,347,8.0,8.0,70,0.00,,---,0.04,VWS V14.00,2013-02-15 20:58:00,
2013-02-15 16:00:00,28.8,19.9,30.10,NW,314,12.0,13.0,69,0.00,,---,0.04,VWS V14.00,2013-02-15 21:00:00,
2013-02-15 16:01:00,28.7,19.5,30.10,NW,322,14.0,15.0,68,0.00,,---,0.04,VWS V14.00,2013-02-15 21:01:00,
2013-02-15 16:03:00,28.5,18.6,30.10,North,360,6.0,15.0,66,0.00,,---,0.04,VWS V14.00,2013-02-15 21:03:00,
2013-02-15 16:06:00,28.2,18.3,30.10,NNW,336,14.0,15.0,66,0.00,,---,0.04,VWS V14.00,2013-02-15 21:06:00,
2013-02-15 16:09:00,28.0,18.1,30.10,NNW,330,9.0,15.0,66,0.00,,---,0.04,VWS V14.00,2013-02-15 21:09:00,
2013-02-15 16:10:00,27.9,18.0,30.10,NNW,336,10.0,16.0,66,0.00,,---,0.04,VWS V14.00,2013-02-15 21:10:00,
2013-02-15 16:11:00,27.8,18.3,30.10,NW,312,6.0,16.0,67,0.00,,---,0.04,VWS V14.00,2013-02-15 21:11:00,
2013-02-15 16:12:00,27.8,18.3,30.10,NW,326,9.0,16.0,67,0.00,,---,0.04,VWS V14.00,2013-02-15 21:12:00,
2013-02-15 16:15:00,27.8,18.3,30.10,NNW,346,10.0,16.0,67,0.00,,---,0.04,VWS V14.00,2013-02-15 21:15:00,
2013-02-15 16:17:00,27.6,18.1,30.11,NNW,340,11.0,16.0,67,0.00,,---,0.04,VWS V14.00,2013-02-15 21:17:00,
2013-02-15 16:18:00,27.6,18.4,30.10,NNW,335,11.0,16.0,68,0.00,,---,0.04,VWS V14.00,2013-02-15 21:18:00,
2013-02-15 16:20:00,27.5,18.3,30.11,NNW,342,6.0,16.0,68,0.00,,---,0.04,VWS V14.00,2013-02-15 21:20:00,
2013-02-15 16:21:00,27.5,18.3,30.10,NNW,338,6.0,16.0,68,0.00,,---,0.04,VWS V14.00,2013-02-15 21:21:00,
2013-02-15 16:22:00,27.5,18.3,30.10,NW,326,9.0,16.0,68,0.00,,---,0.04,VWS V14.00,2013-02-15 21:22:00,
2013-02-15 16:24:00,27.5,18.7,30.11,North,349,11.0,16.0,69,0.00,,---,0.04,VWS V14.00,2013-02-15 21:24:00,
2013-02-15 16:26:00,27.5,18.7,30.10,NW,310,9.0,16.0,69,0.00,,---,0.04,VWS V14.00,2013-02-15 21:26:00,
2013-02-15 16:27:00,27.5,18.7,30.10,NNW,346,11.0,16.0,69,0.00,,---,0.04,VWS V14.00,2013-02-15 21:27:00,
2013-02-15 16:28:00,27.4,18.6,30.11,NW,321,9.0,11.0,69,0.00,,---,0.04,VWS V14.00,2013-02-15 21:28:00,
2013-02-15 16:30:00,27.3,18.5,30.10,NNW,341,11.0,14.0,69,0.00,,---,0.04,VWS V14.00,2013-02-15 21:30:00,
2013-02-15 16:33:00,27.2,18.7,30.11,NNW,333,9.0,14.0,70,0.00,,---,0.04,VWS V14.00,2013-02-15 21:33:00,
2013-02-15 16:34:00,27.1,18.6,30.10,NNW,348,13.0,14.0,70,0.00,,---,0.04,VWS V14.00,2013-02-15 21:34:00,
2013-02-15 16:35:00,27.0,18.5,30.11,North,360,5.0,14.0,70,0.00,,---,0.04,VWS V14.00,2013-02-15 21:35:00,
2013-02-15 16:36:00,27.0,18.5,30.10,NW,312,12.0,14.0,70,0.00,,---,0.04,VWS V14.00,2013-02-15 21:36:00,
2013-02-15 16:38:00,27.0,18.5,30.11,NW,304,1.0,14.0,70,0.00,,---,0.04,VWS V14.00,2013-02-15 21:38:00,
2013-02-15 16:39:00,27.0,18.5,30.11,NNW,329,8.0,14.0,70,0.00,,---,0.04,VWS V14.00,2013-02-15 21:39:00,
2013-02-15 16:41:00,27.1,18.6,30.10,NW,323,6.0,14.0,70,0.00,,---,0.04,VWS V14.00,2013-02-15 21:41:00,
2013-02-15 16:42:00,27.1,18.6,30.10,NNW,328,3.0,14.0,70,0.00,,---,0.04,VWS V14.00,2013-02-15 21:42:00,
2013-02-15 16:45:00,27.2,18.7,30.11,NW,315,7.0,14.0,70,0.00,,---,0.04,VWS V14.00,2013-02-15 21:45:00,
2013-02-15 16:47:00,27.3,18.8,30.10,NNW,331,15.0,15.0,70,0.00,,---,0.04,VWS V14.00,2013-02-15 21:47:00,
2013-02-15 16:48:00,27.3,18.8,30.11,NW,311,9.0,15.0,70,0.00,,---,0.04,VWS V14.00,2013-02-15 21:48:00,
2013-02-15 16:51:00,27.2,18.4,30.11,North,355,9.0,15.0,69,0.00,,---,0.04,VWS V14.00,2013-02-15 21:51:00,
2013-02-15 16:53:00,27.1,18.3,30.11,North,355,13.0,15.0,69,0.00,,---,0.04,VWS V14.00,2013-02-15 21:53:00,
2013-02-15 16:54:00,27.0,17.9,30.11,NNW,344,11.0,16.0,68,0.00,,---,0.04,VWS V14.00,2013-02-15 21:54:00,
2013-02-15 16:58:00,27.1,17.6,30.11,North,355,11.0,16.0,67,0.00,,---,0.04,VWS V14.00,2013-02-15 21:58:00,
2013-02-15 17:00:00,27.0,17.2,30.11,NNW,330,6.0,12.0,66,0.00,,---,0.04,VWS V14.00,2013-02-15 22:00:00,
2013-02-15 17:02:00,27.0,17.2,30.11,NW,309,5.0,12.0,66,0.00,,---,0.04,VWS V14.00,2013-02-15 22:02:00,
2013-02-15 17:06:00,26.8,17.0,30.11,WNW,288,3.0,15.0,66,0.00,,---,0.04,VWS V14.00,2013-02-15 22:06:00,
2013-02-15 17:07:00,26.7,16.9,30.11,NNW,329,5.0,15.0,66,0.00,,---,0.04,VWS V14.00,2013-02-15 22:07:00,
2013-02-15 17:11:00,26.6,16.8,30.11,WNW,301,9.0,15.0,66,0.00,,---,0.04,VWS V14.00,2013-02-15 22:11:00,
2013-02-15 17:13:00,26.5,17.0,30.11,NW,315,10.0,15.0,67,0.00,,---,0.04,VWS V14.00,2013-02-15 22:13:00,
2013-02-15 17:16:00,26.3,16.9,30.12,NW,324,9.0,15.0,67,0.00,,---,0.04,VWS V14.00,2013-02-15 22:16:00,
2013-02-15 17:19:00,26.2,16.8,30.12,WNW,303,6.0,15.0,67,0.00,,---,0.04,VWS V14.00,2013-02-15 22:19:00,
2013-02-15 17:20:00,26.2,17.1,30.12,NNW,344,7.0,15.0,68,0.00,,---,0.04,VWS V14.00,2013-02-15 22:20:00,
2013-02-15 17:21:00,26.2,17.1,30.12,NW,319,5.0,15.0,68,0.00,,---,0.04,VWS V14.00,2013-02-15 22:21:00,
2013-02-15 17:22:00,26.2,17.1,30.12,NW,319,6.0,15.0,68,0.00,,---,0.04,VWS V14.00,2013-02-15 22:22:00,
2013-02-15 17:25:00,26.2,17.4,30.12,NW,315,7.0,15.0,69,0.00,,---,0.04,VWS V14.00,2013-02-15 22:25:00,
2013-02-15 17:27:00,26.2,17.4,30.12,North,349,6.0,15.0,69,0.00,,---,0.04,VWS V14.00,2013-02-15 22:27:00,
2013-02-15 17:29:00,26.1,17.3,30.12,NNW,336,6.0,7.0,69,0.00,,---,0.04,VWS V14.00,2013-02-15 22:29:00,
2013-02-15 17:32:00,26.0,17.2,30.12,NNW,337,5.0,11.0,69,0.00,,---,0.04,VWS V14.00,2013-02-15 22:32:00,
2013-02-15 17:35:00,26.0,17.6,30.12,NW,325,9.0,11.0,70,0.00,,---,0.04,VWS V14.00,2013-02-15 22:35:00,
2013-02-15 17:37:00,26.0,17.6,30.12,NNW,338,7.0,11.0,70,0.00,,---,0.04,VWS V14.00,2013-02-15 22:37:00,
2013-02-15 17:39:00,26.0,17.6,30.12,NW,321,7.0,11.0,70,0.00,,---,0.04,VWS V14.00,2013-02-15 22:39:00,
2013-02-15 17:40:00,26.0,17.6,30.12,NW,317,4.0,11.0,70,0.00,,---,0.04,VWS V14.00,2013-02-15 22:40:00,
2013-02-15 17:42:00,26.1,17.7,30.12,NW,311,5.0,11.0,70,0.00,,---,0.04,VWS V14.00,2013-02-15 22:42:00,
2013-02-15 17:44:00,26.1,17.7,30.12,WNW,298,4.0,11.0,70,0.00,,---,0.04,VWS V14.00,2013-02-15 22:44:00,
2013-02-15 17:45:00,26.1,17.7,30.12,WNW,298,5.0,11.0,70,0.00,,---,0.04,VWS V14.00,2013-02-15 22:45:00,
2013-02-15 17:46:00,26.2,17.8,30.12,WNW,298,4.0,11.0,70,0.00,,---,0.04,VWS V14.00,2013-02-15 22:46:00,
2013-02-15 17:47:00,26.2,18.1,30.12,WNW,300,8.0,11.0,71,0.00,,---,0.04,VWS V14.00,2013-02-15 22:47:00,
2013-02-15 17:50:00,26.2,18.1,30.12,NW,312,7.0,12.0,71,0.00,,---,0.04,VWS V14.00,2013-02-15 22:50:00,
2013-02-15 17:51:00,26.2,18.1,30.12,NNW,333,5.0,12.0,71,0.00,,---,0.04,VWS V14.00,2013-02-15 22:51:00,
2013-02-15 17:52:00,26.2,18.1,30.12,NNW,333,7.0,12.0,71,0.00,,---,0.04,VWS V14.00,2013-02-15 22:52:00,
2013-02-15 17:54:00,26.2,18.4,30.13,NNW,346,12.0,12.0,72,0.00,,---,0.04,VWS V14.00,2013-02-15 22:54:00,
2013-02-15 17:55:00,26.1,18.3,30.13,NNW,345,5.0,14.0,72,0.00,,---,0.04,VWS V14.00,2013-02-15 22:55:00,
2013-02-15 17:57:00,26.1,18.6,30.13,NW,318,10.0,14.0,73,0.00,,---,0.04,VWS V14.00,2013-02-15 22:57:00,
2013-02-15 18:01:00,25.9,18.5,30.13,NW,321,14.0,16.0,73,0.00,,---,0.04,VWS V14.00,2013-02-15 23:01:00,
2013-02-15 18:02:00,25.8,18.7,30.13,NW,323,14.0,16.0,74,0.00,,---,0.04,VWS V14.00,2013-02-15 23:02:00,
2013-02-15 18:03:00,25.8,18.7,30.13,NNW,333,5.0,16.0,74,0.00,,---,0.04,VWS V14.00,2013-02-15 23:03:00,
2013-02-15 18:07:00,25.6,18.8,30.13,WNW,294,5.0,16.0,75,0.00,,---,0.04,VWS V14.00,2013-02-15 23:07:00,
2013-02-15 18:08:00,25.6,18.8,30.13,WNW,293,2.0,16.0,75,0.00,,---,0.04,VWS V14.00,2013-02-15 23:08:00,
2013-02-15 18:10:00,25.5,18.7,30.13,NNW,330,6.0,16.0,75,0.00,,---,0.04,VWS V14.00,2013-02-15 23:10:00,
2013-02-15 18:13:00,25.3,18.8,30.13,NNW,332,5.0,16.0,76,0.00,,---,0.04,VWS V14.00,2013-02-15 23:13:00,
2013-02-15 18:14:00,25.3,18.8,30.14,NNW,331,4.0,16.0,76,0.00,,---,0.04,VWS V14.00,2013-02-15 23:14:00,
2013-02-15 18:18:00,25.1,18.6,30.13,WNW,302,4.0,16.0,76,0.00,,---,0.04,VWS V14.00,2013-02-15 23:18:00,
2013-02-15 18:19:00,25.1,18.6,30.13,WNW,302,5.0,16.0,76,0.00,,---,0.04,VWS V14.00,2013-02-15 23:19:00,
2013-02-15 18:22:00,24.9,18.4,30.13,NNW,345,7.0,16.0,76,0.00,,---,0.04,VWS V14.00,2013-02-15 23:22:00,
2013-02-15 18:24:00,24.9,18.7,30.13,NNW,337,4.0,16.0,77,0.00,,---,0.04,VWS V14.00,2013-02-15 23:24:00,
2013-02-15 18:25:00,24.8,18.6,30.14,NNW,327,2.0,16.0,77,0.00,,---,0.04,VWS V14.00,2013-02-15 23:25:00,
2013-02-15 18:27:00,24.8,18.6,30.14,NW,321,0.0,16.0,77,0.00,,---,0.04,VWS V14.00,2013-02-15 23:27:00,
2013-02-15 18:29:00,24.7,18.5,30.13,NW,323,2.0,2.0,77,0.00,,---,0.04,VWS V14.00,2013-02-15 23:29:00,
2013-02-15 18:30:00,24.7,18.5,30.13,NW,321,2.0,4.0,77,0.00,,---,0.04,VWS V14.00,2013-02-15 23:30:00,
2013-02-15 18:32:00,24.6,18.4,30.14,NW,311,0.0,4.0,77,0.00,,---,0.04,VWS V14.00,2013-02-15 23:32:00,
2013-02-15 18:35:00,24.5,18.6,30.14,NW,322,1.0,4.0,78,0.00,,---,0.04,VWS V14.00,2013-02-15 23:35:00,
2013-02-15 18:36:00,24.5,18.6,30.14,WNW,295,1.0,5.0,78,0.00,,---,0.04,VWS V14.00,2013-02-15 23:36:00,
2013-02-15 18:37:00,24.5,18.6,30.14,NW,326,3.0,5.0,78,0.00,,---,0.04,VWS V14.00,2013-02-15 23:37:00,
2013-02-15 18:38:00,24.5,18.6,30.14,NNW,338,6.0,7.0,78,0.00,,---,0.04,VWS V14.00,2013-02-15 23:38:00,
2013-02-15 18:41:00,24.4,18.8,30.14,NNW,335,4.0,7.0,79,0.00,,---,0.04,VWS V14.00,2013-02-15 23:41:00,
2013-02-15 18:42:00,24.4,18.8,30.14,NNW,334,4.0,7.0,79,0.00,,---,0.04,VWS V14.00,2013-02-15 23:42:00,
2013-02-15 18:45:00,24.4,18.8,30.14,NW,311,6.0,8.0,79,0.00,,---,0.04,VWS V14.00,2013-02-15 23:45:00,
2013-02-15 18:47:00,24.3,18.7,30.14,NW,313,4.0,8.0,79,0.00,,---,0.04,VWS V14.00,2013-02-15 23:47:00,
2013-02-15 18:48:00,24.3,18.7,30.14,NW,313,3.0,8.0,79,0.00,,---,0.04,VWS V14.00,2013-02-15 23:48:00,
2013-02-15 18:50:00,24.3,18.7,30.14,NW,313,5.0,8.0,79,0.00,,---,0.04,VWS V14.00,2013-02-15 23:50:00,
2013-02-15 18:51:00,24.2,18.9,30.14,NNW,331,7.0,10.0,80,0.00,,---,0.04,VWS V14.00,2013-02-15 23:51:00,
2013-02-15 18:53:00,24.2,18.9,30.14,NNW,333,8.0,10.0,80,0.00,,---,0.04,VWS V14.00,2013-02-15 23:53:00,
2013-02-15 18:55:00,24.2,18.9,30.14,NW,317,4.0,10.0,80,0.00,,---,0.04,VWS V14.00,2013-02-15 23:55:00,
2013-02-15 18:56:00,24.2,18.9,30.14,NW,317,3.0,10.0,80,0.00,,---,0.04,VWS V14.00,2013-02-15 23:56:00,
2013-02-15 18:58:00,24.2,18.9,30.14,NW,317,5.0,5.0,80,0.00,,---,0.04,VWS V14.00,2013-02-15 23:58:00,
2013-02-15 18:59:00,24.2,18.9,30.15,NW,317,6.0,7.0,80,0.00,,---,0.04,VWS V14.00,2013-02-15 23:59:00,
2013-02-15 19:01:00,24.2,18.9,30.14,NW,309,2.0,7.0,80,0.00,,---,0.04,VWS V14.00,2013-02-16 00:01:00,
2013-02-15 19:02:00,24.1,18.8,30.14,NW,309,2.0,7.0,80,0.00,,---,0.04,VWS V14.00,2013-02-16 00:02:00,
2013-02-15 19:04:00,24.1,18.8,30.15,NW,315,2.0,7.0,80,0.00,,---,0.04,VWS V14.00,2013-02-16 00:04:00,
2013-02-15 19:06:00,24.1,18.8,30.15,NW,307,3.0,7.0,80,0.00,,---,0.04,VWS V14.00,2013-02-16 00:06:00,
2013-02-15 19:07:00,24.0,18.7,30.15,NW,310,1.0,7.0,80,0.00,,---,0.04,VWS V14.00,2013-02-16 00:07:00,
2013-02-15 19:09:00,24.0,19.0,30.15,NNW,327,0.0,7.0,81,0.00,,---,0.04,VWS V14.00,2013-02-16 00:09:00,
2013-02-15 19:10:00,24.0,19.0,30.15,NW,326,1.0,7.0,81,0.00,,---,0.04,VWS V14.00,2013-02-16 00:10:00,
2013-02-15 19:12:00,24.0,19.0,30.15,NW,307,2.0,7.0,81,0.00,,---,0.04,VWS V14.00,2013-02-16 00:12:00,
2013-02-15 19:13:00,24.0,19.0,30.15,NW,309,0.0,7.0,81,0.00,,---,0.04,VWS V14.00,2013-02-16 00:13:00,
2013-02-15 19:15:00,24.0,19.0,30.14,NW,309,0.0,7.0,81,0.00,,---,0.04,VWS V14.00,2013-02-16 00:15:00,
2013-02-15 19:16:00,24.0,19.0,30.15,NW,309,0.0,7.0,81,0.00,,---,0.04,VWS V14.00,2013-02-16 00:16:00,
2013-02-15 19:17:00,24.0,19.0,30.15,NW,309,0.0,7.0,81,0.00,,---,0.04,VWS V14.00,2013-02-16 00:17:00,
2013-02-15 19:18:00,23.9,18.9,30.14,NW,309,0.0,7.0,81,0.00,,---,0.04,VWS V14.00,2013-02-16 00:18:00,
2013-02-15 19:20:00,24.0,19.0,30.15,NW,309,0.0,7.0,81,0.00,,---,0.04,VWS V14.00,2013-02-16 00:20:00,
2013-02-15 19:21:00,24.0,19.0,30.15,NW,309,0.0,7.0,81,0.00,,---,0.04,VWS V14.00,2013-02-16 00:21:00,
2013-02-15 19:23:00,23.9,18.9,30.15,NW,309,0.0,7.0,81,0.00,,---,0.04,VWS V14.00,2013-02-16 00:23:00,
2013-02-15 19:25:00,23.9,18.9,30.14,NW,307,0.0,7.0,81,0.00,,---,0.04,VWS V14.00,2013-02-16 00:25:00,
2013-02-15 19:26:00,23.9,18.9,30.15,NW,307,0.0,7.0,81,0.00,,---,0.04,VWS V14.00,2013-02-16 00:26:00,
2013-02-15 19:29:00,23.9,18.9,30.15,NW,309,0.0,0.0,81,0.00,,---,0.04,VWS V14.00,2013-02-16 00:29:00,
2013-02-15 19:30:00,23.9,18.9,30.15,NW,307,0.0,2.0,81,0.00,,---,0.04,VWS V14.00,2013-02-16 00:30:00,
2013-02-15 19:31:00,23.9,18.9,30.15,NW,309,0.0,2.0,81,0.00,,---,0.04,VWS V14.00,2013-02-16 00:31:00,
2013-02-15 19:34:00,23.9,18.9,30.15,NW,309,0.0,2.0,81,0.00,,---,0.04,VWS V14.00,2013-02-16 00:34:00,
2013-02-15 19:36:00,23.9,18.9,30.15,NW,309,0.0,2.0,81,0.00,,---,0.04,VWS V14.00,2013-02-16 00:36:00,
2013-02-15 19:37:00,23.9,18.9,30.15,NW,309,0.0,2.0,81,0.00,,---,0.04,VWS V14.00,2013-02-16 00:37:00,
2013-02-15 19:38:00,23.9,18.9,30.15,NW,304,0.0,3.0,81,0.00,,---,0.04,VWS V14.00,2013-02-16 00:38:00,
2013-02-15 19:39:00,23.9,18.9,30.15,NW,306,0.0,3.0,81,0.00,,---,0.04,VWS V14.00,2013-02-16 00:39:00,
2013-02-15 19:41:00,23.9,18.9,30.15,NW,304,0.0,3.0,81,0.00,,---,0.04,VWS V14.00,2013-02-16 00:41:00,
2013-02-15 19:44:00,23.9,18.9,30.15,NW,304,0.0,3.0,81,0.00,,---,0.04,VWS V14.00,2013-02-16 00:44:00,
2013-02-15 19:45:00,23.9,18.9,30.15,NW,304,0.0,3.0,81,0.00,,---,0.04,VWS V14.00,2013-02-16 00:45:00,
2013-02-15 19:46:00,23.9,18.9,30.15,NW,305,0.0,3.0,81,0.00,,---,0.04,VWS V14.00,2013-02-16 00:46:00,
2013-02-15 19:47:00,23.9,18.9,30.15,NW,305,0.0,3.0,81,0.00,,---,0.04,VWS V14.00,2013-02-16 00:47:00,
2013-02-15 19:49:00,23.9,18.9,30.15,NW,305,0.0,3.0,81,0.00,,---,0.04,VWS V14.00,2013-02-16 00:49:00,
2013-02-15 19:51:00,23.9,18.9,30.15,NW,305,0.0,3.0,81,0.00,,---,0.04,VWS V14.00,2013-02-16 00:51:00,
2013-02-15 19:52:00,23.9,18.9,30.15,NW,305,0.0,3.0,81,0.00,,---,0.04,VWS V14.00,2013-02-16 00:52:00,
2013-02-15 19:54:00,23.9,19.2,30.15,NW,305,0.0,3.0,82,0.00,,---,0.04,VWS V14.00,2013-02-16 00:54:00,
2013-02-15 19:57:00,23.9,19.2,30.15,NW,304,0.0,3.0,82,0.00,,---,0.04,VWS V14.00,2013-02-16 00:57:00,
2013-02-15 19:59:00,23.9,19.2,30.14,NW,304,0.0,0.0,82,0.00,,---,0.04,VWS V14.00,2013-02-16 00:59:00,
2013-02-15 20:00:00,23.9,19.2,30.14,NW,305,0.0,0.0,82,0.00,,---,0.04,VWS V14.00,2013-02-16 01:00:00,
2013-02-15 20:03:00,23.9,19.2,30.14,NW,304,0.0,0.0,82,0.00,,---,0.04,VWS V14.00,2013-02-16 01:03:00,
2013-02-15 20:05:00,23.9,19.2,30.14,NW,305,0.0,0.0,82,0.00,,---,0.04,VWS V14.00,2013-02-16 01:05:00,
2013-02-15 20:06:00,23.9,19.2,30.14,NW,304,0.0,0.0,82,0.00,,---,0.04,VWS V14.00,2013-02-16 01:06:00,
2013-02-15 20:07:00,23.9,19.2,30.14,NW,305,0.0,0.0,82,0.00,,---,0.04,VWS V14.00,2013-02-16 01:07:00,
2013-02-15 20:09:00,23.9,19.2,30.14,NW,304,0.0,0.0,82,0.00,,---,0.04,VWS V14.00,2013-02-16 01:09:00,
2013-02-15 20:10:00,23.9,19.2,30.14,NW,304,0.0,0.0,82,0.00,,---,0.04,VWS V14.00,2013-02-16 01:10:00,
2013-02-15 20:11:00,23.9,19.2,30.15,WNW,300,5.0,6.0,82,0.00,,---,0.04,VWS V14.00,2013-02-16 01:11:00,
2013-02-15 20:12:00,23.9,19.2,30.14,WNW,300,4.0,6.0,82,0.00,,---,0.04,VWS V14.00,2013-02-16 01:12:00,
2013-02-15 20:15:00,23.9,19.2,30.15,WNW,301,2.0,6.0,82,0.00,,---,0.04,VWS V14.00,2013-02-16 01:15:00,
2013-02-15 20:18:00,23.9,19.2,30.14,WNW,300,3.0,6.0,82,0.00,,---,0.04,VWS V14.00,2013-02-16 01:18:00,
2013-02-15 20:19:00,23.9,19.2,30.14,WNW,300,2.0,6.0,82,0.00,,---,0.04,VWS V14.00,2013-02-16 01:19:00,
2013-02-15 20:21:00,23.9,19.2,30.14,WNW,300,3.0,6.0,82,0.00,,---,0.04,VWS V14.00,2013-02-16 01:21:00,
2013-02-15 20:26:00,23.9,19.2,30.14,WNW,301,2.0,6.0,82,0.00,,---,0.04,VWS V14.00,2013-02-16 01:26:00,
2013-02-15 20:27:00,23.9,19.2,30.14,WNW,301,2.0,6.0,82,0.00,,---,0.04,VWS V14.00,2013-02-16 01:27:00,
2013-02-15 20:28:00,23.9,19.2,30.14,WNW,301,1.0,6.0,82,0.00,,---,0.04,VWS V14.00,2013-02-16 01:28:00,
2013-02-15 20:31:00,23.9,19.2,30.14,WNW,300,2.0,4.0,82,0.00,,---,0.04,VWS V14.00,2013-02-16 01:31:00,
2013-02-15 20:32:00,23.9,19.2,30.14,WNW,301,2.0,4.0,82,0.00,,---,0.04,VWS V14.00,2013-02-16 01:32:00,
2013-02-15 20:33:00,23.9,19.2,30.14,WNW,300,2.0,4.0,82,0.00,,---,0.04,VWS V14.00,2013-02-16 01:33:00,
2013-02-15 20:36:00,24.0,19.3,30.14,WNW,301,3.0,4.0,82,0.00,,---,0.04,VWS V14.00,2013-02-16 01:36:00,
2013-02-15 20:37:00,24.0,19.6,30.14,WNW,300,2.0,4.0,83,0.00,,---,0.04,VWS V14.00,2013-02-16 01:37:00,
2013-02-15 20:38:00,24.0,19.6,30.14,WNW,301,1.0,4.0,83,0.00,,---,0.04,VWS V14.00,2013-02-16 01:38:00,
2013-02-15 20:39:00,24.0,19.6,30.14,WNW,301,2.0,4.0,83,0.00,,---,0.04,VWS V14.00,2013-02-16 01:39:00,
2013-02-15 20:42:00,24.1,19.7,30.14,WNW,300,2.0,4.0,83,0.00,,---,0.04,VWS V14.00,2013-02-16 01:42:00,
2013-02-15 20:43:00,24.1,19.7,30.14,WNW,301,2.0,4.0,83,0.00,,---,0.04,VWS V14.00,2013-02-16 01:43:00,
2013-02-15 20:44:00,24.1,19.7,30.14,WNW,301,2.0,4.0,83,0.00,,---,0.04,VWS V14.00,2013-02-16 01:44:00,
2013-02-15 20:45:00,24.1,19.7,30.15,WNW,301,3.0,4.0,83,0.00,,---,0.04,VWS V14.00,2013-02-16 01:45:00,
2013-02-15 20:48:00,24.2,19.8,30.14,WNW,301,1.0,4.0,83,0.00,,---,0.04,VWS V14.00,2013-02-16 01:48:00,
2013-02-15 20:49:00,24.2,19.8,30.14,WNW,301,1.0,4.0,83,0.00,,---,0.04,VWS V14.00,2013-02-16 01:49:00,
2013-02-15 20:50:00,24.2,19.8,30.14,WNW,301,4.0,5.0,83,0.00,,---,0.04,VWS V14.00,2013-02-16 01:50:00,
2013-02-15 20:51:00,24.2,19.8,30.14,WNW,301,4.0,5.0,83,0.00,,---,0.04,VWS V14.00,2013-02-16 01:51:00,
2013-02-15 20:54:00,24.1,19.7,30.14,WNW,301,3.0,5.0,83,0.00,,---,0.04,VWS V14.00,2013-02-16 01:54:00,
2013-02-15 20:55:00,24.1,19.7,30.14,WNW,300,4.0,5.0,83,0.00,,---,0.04,VWS V14.00,2013-02-16 01:55:00,
2013-02-15 20:56:00,24.1,19.7,30.14,WNW,301,4.0,5.0,83,0.00,,---,0.04,VWS V14.00,2013-02-16 01:56:00,
2013-02-15 20:58:00,24.1,19.7,30.14,WNW,301,2.0,5.0,83,0.00,,---,0.04,VWS V14.00,2013-02-16 01:58:00,
2013-02-15 21:00:00,24.1,19.7,30.14,WNW,301,3.0,4.0,83,0.00,,---,0.04,VWS V14.00,2013-02-16 02:00:00,
2013-02-15 21:01:00,24.1,19.7,30.14,WNW,301,2.0,4.0,83,0.00,,---,0.04,VWS V14.00,2013-02-16 02:01:00,
2013-02-15 21:03:00,24.0,19.9,30.14,WNW,300,2.0,4.0,84,0.00,,---,0.04,VWS V14.00,2013-02-16 02:03:00,
2013-02-15 21:06:00,24.0,19.9,30.14,WNW,300,4.0,4.0,84,0.00,,---,0.04,VWS V14.00,2013-02-16 02:06:00,
2013-02-15 21:07:00,24.0,19.9,30.14,WNW,301,2.0,4.0,84,0.00,,---,0.04,VWS V14.00,2013-02-16 02:07:00,
2013-02-15 21:08:00,24.0,19.9,30.14,WNW,300,1.0,4.0,84,0.00,,---,0.04,VWS V14.00,2013-02-16 02:08:00,
2013-02-15 21:09:00,24.0,19.9,30.14,WNW,301,2.0,4.0,84,0.00,,---,0.04,VWS V14.00,2013-02-16 02:09:00,
2013-02-15 21:11:00,24.0,19.9,30.14,WNW,300,3.0,4.0,84,0.00,,---,0.04,VWS V14.00,2013-02-16 02:11:00,
2013-02-15 21:15:00,23.9,19.8,30.14,WNW,300,2.0,4.0,84,0.00,,---,0.04,VWS V14.00,2013-02-16 02:15:00,
2013-02-15 21:16:00,23.9,19.8,30.14,WNW,300,3.0,4.0,84,0.00,,---,0.04,VWS V14.00,2013-02-16 02:16:00,
2013-02-15 21:20:00,23.8,20.0,30.14,WNW,300,2.0,4.0,85,0.00,,---,0.04,VWS V14.00,2013-02-16 02:20:00,
2013-02-15 21:21:00,23.8,20.0,30.14,WNW,301,1.0,4.0,85,0.00,,---,0.04,VWS V14.00,2013-02-16 02:21:00,
2013-02-15 21:23:00,23.8,20.0,30.14,WNW,301,2.0,4.0,85,0.00,,---,0.04,VWS V14.00,2013-02-16 02:23:00,
2013-02-15 21:25:00,23.8,20.0,30.14,WNW,301,2.0,4.0,85,0.00,,---,0.04,VWS V14.00,2013-02-16 02:25:00,
2013-02-15 21:26:00,23.8,20.0,30.14,WNW,301,2.0,4.0,85,0.00,,---,0.04,VWS V14.00,2013-02-16 02:26:00,
2013-02-15 21:27:00,23.8,20.0,30.14,WNW,300,2.0,4.0,85,0.00,,---,0.04,VWS V14.00,2013-02-16 02:27:00,
2013-02-15 21:29:00,23.7,20.1,30.14,WNW,300,2.0,2.0,86,0.00,,---,0.04,VWS V14.00,2013-02-16 02:29:00,
2013-02-15 21:30:00,23.7,20.1,30.14,WNW,300,2.0,2.0,86,0.00,,---,0.04,VWS V14.00,2013-02-16 02:30:00,
2013-02-15 21:32:00,23.6,20.0,30.14,WNW,301,1.0,2.0,86,0.00,,---,0.04,VWS V14.00,2013-02-16 02:32:00,
2013-02-15 21:33:00,23.6,20.0,30.14,WNW,301,1.0,2.0,86,0.00,,---,0.04,VWS V14.00,2013-02-16 02:33:00,
2013-02-15 21:34:00,23.6,20.0,30.14,WNW,300,2.0,2.0,86,0.00,,---,0.04,VWS V14.00,2013-02-16 02:34:00,
2013-02-15 21:37:00,23.5,19.9,30.14,WNW,301,1.0,2.0,86,0.00,,---,0.04,VWS V14.00,2013-02-16 02:37:00,
2013-02-15 21:38:00,23.5,19.9,30.14,WNW,301,2.0,2.0,86,0.00,,---,0.04,VWS V14.00,2013-02-16 02:38:00,
2013-02-15 21:39:00,23.5,19.9,30.14,WNW,301,2.0,2.0,86,0.00,,---,0.04,VWS V14.00,2013-02-16 02:39:00,
2013-02-15 21:40:00,23.5,19.9,30.14,WNW,301,2.0,2.0,86,0.00,,---,0.04,VWS V14.00,2013-02-16 02:40:00,
2013-02-15 21:45:00,23.5,20.2,30.14,WNW,301,2.0,2.0,87,0.00,,---,0.04,VWS V14.00,2013-02-16 02:45:00,
2013-02-15 21:47:00,23.4,20.1,30.14,WNW,300,2.0,3.0,87,0.00,,---,0.04,VWS V14.00,2013-02-16 02:47:00,
2013-02-15 21:50:00,23.3,20.0,30.14,WNW,301,1.0,3.0,87,0.00,,---,0.04,VWS V14.00,2013-02-16 02:50:00,
2013-02-15 21:51:00,23.4,20.1,30.14,WNW,301,1.0,3.0,87,0.00,,---,0.04,VWS V14.00,2013-02-16 02:51:00,
2013-02-15 21:52:00,23.3,20.0,30.14,WNW,301,1.0,3.0,87,0.00,,---,0.04,VWS V14.00,2013-02-16 02:52:00,
2013-02-15 21:53:00,23.3,20.0,30.14,WNW,301,1.0,3.0,87,0.00,,---,0.04,VWS V14.00,2013-02-16 02:53:00,
2013-02-15 21:57:00,23.3,20.3,30.14,WNW,300,1.0,3.0,88,0.00,,---,0.04,VWS V14.00,2013-02-16 02:57:00,
2013-02-15 21:58:00,23.3,20.3,30.14,WNW,300,1.0,2.0,88,0.00,,---,0.04,VWS V14.00,2013-02-16 02:58:00,
2013-02-15 21:59:00,23.3,20.3,30.14,WNW,301,1.0,2.0,88,0.00,,---,0.04,VWS V14.00,2013-02-16 02:59:00,
2013-02-15 22:02:00,23.2,20.2,30.13,WNW,301,1.0,2.0,88,0.00,,---,0.04,VWS V14.00,2013-02-16 03:02:00,
2013-02-15 22:03:00,23.2,20.2,30.13,WNW,300,2.0,2.0,88,0.00,,---,0.04,VWS V14.00,2013-02-16 03:03:00,
2013-02-15 22:05:00,23.1,20.1,30.13,WNW,301,1.0,2.0,88,0.00,,---,0.04,VWS V14.00,2013-02-16 03:05:00,
2013-02-15 22:06:00,23.2,20.2,30.13,WNW,300,1.0,2.0,88,0.00,,---,0.04,VWS V14.00,2013-02-16 03:06:00,
2013-02-15 22:09:00,23.1,20.1,30.13,WNW,301,0.0,2.0,88,0.00,,---,0.04,VWS V14.00,2013-02-16 03:09:00,
2013-02-15 22:11:00,23.1,20.1,30.13,WNW,301,1.0,2.0,88,0.00,,---,0.04,VWS V14.00,2013-02-16 03:11:00,
2013-02-15 22:14:00,23.2,20.2,30.13,WNW,300,2.0,2.0,88,0.00,,---,0.04,VWS V14.00,2013-02-16 03:14:00,
2013-02-15 22:15:00,23.2,20.5,30.13,WNW,301,2.0,2.0,89,0.00,,---,0.04,VWS V14.00,2013-02-16 03:15:00,
2013-02-15 22:16:00,23.2,20.5,30.13,WNW,300,2.0,3.0,89,0.00,,---,0.04,VWS V14.00,2013-02-16 03:16:00,
2013-02-15 22:17:00,23.2,20.5,30.13,WNW,301,2.0,3.0,89,0.00,,---,0.04,VWS V14.00,2013-02-16 03:17:00,
2013-02-15 22:20:00,23.3,20.5,30.13,WNW,301,2.0,3.0,89,0.00,,---,0.04,VWS V14.00,2013-02-16 03:20:00,
2013-02-15 22:21:00,23.3,20.5,30.13,WNW,301,1.0,3.0,89,0.00,,---,0.04,VWS V14.00,2013-02-16 03:21:00,
2013-02-15 22:23:00,23.3,20.5,30.13,WNW,301,1.0,3.0,89,0.00,,---,0.04,VWS V14.00,2013-02-16 03:23:00,
2013-02-15 22:24:00,23.3,20.5,30.13,WNW,301,2.0,3.0,89,0.00,,---,0.04,VWS V14.00,2013-02-16 03:24:00,
2013-02-15 22:25:00,23.3,20.5,30.13,WNW,301,1.0,3.0,89,0.00,,---,0.04,VWS V14.00,2013-02-16 03:25:00,
2013-02-15 22:27:00,23.3,20.5,30.13,WNW,301,1.0,3.0,89,0.00,,---,0.04,VWS V14.00,2013-02-16 03:27:00,
2013-02-15 22:28:00,23.3,20.5,30.13,WNW,301,1.0,3.0,89,0.00,,---,0.04,VWS V14.00,2013-02-16 03:28:00,
2013-02-15 22:31:00,23.3,20.5,30.13,WNW,300,1.0,3.0,89,0.00,,---,0.04,VWS V14.00,2013-02-16 03:31:00,
2013-02-15 22:32:00,23.3,20.5,30.13,WNW,301,1.0,3.0,89,0.00,,---,0.04,VWS V14.00,2013-02-16 03:32:00,
2013-02-15 22:34:00,23.3,20.5,30.13,WNW,301,0.0,3.0,89,0.00,,---,0.04,VWS V14.00,2013-02-16 03:34:00,
2013-02-15 22:36:00,23.3,20.5,30.13,WNW,300,0.0,3.0,89,0.00,,---,0.04,VWS V14.00,2013-02-16 03:36:00,
2013-02-15 22:38:00,23.3,20.5,30.13,WNW,301,1.0,3.0,89,0.00,,---,0.04,VWS V14.00,2013-02-16 03:38:00,
2013-02-15 22:40:00,23.3,20.5,30.13,WNW,300,1.0,3.0,89,0.00,,---,0.04,VWS V14.00,2013-02-16 03:40:00,
2013-02-15 22:43:00,23.3,20.5,30.12,WNW,301,1.0,3.0,89,0.00,,---,0.04,VWS V14.00,2013-02-16 03:43:00,
2013-02-15 22:44:00,23.3,20.5,30.12,WNW,301,0.0,3.0,89,0.00,,---,0.04,VWS V14.00,2013-02-16 03:44:00,
2013-02-15 22:45:00,23.3,20.5,30.12,WNW,301,1.0,3.0,89,0.00,,---,0.04,VWS V14.00,2013-02-16 03:45:00,
2013-02-15 22:47:00,23.3,20.5,30.12,WNW,301,0.0,3.0,89,0.00,,---,0.04,VWS V14.00,2013-02-16 03:47:00,
2013-02-15 22:48:00,23.3,20.5,30.12,WNW,300,2.0,3.0,89,0.00,,---,0.04,VWS V14.00,2013-02-16 03:48:00,
2013-02-15 22:50:00,23.3,20.5,30.12,WNW,300,0.0,3.0,89,0.00,,---,0.04,VWS V14.00,2013-02-16 03:50:00,
2013-02-15 22:53:00,23.3,20.5,30.12,WNW,301,2.0,3.0,89,0.00,,---,0.04,VWS V14.00,2013-02-16 03:53:00,
2013-02-15 22:55:00,23.3,20.5,30.12,WNW,301,2.0,3.0,89,0.00,,---,0.04,VWS V14.00,2013-02-16 03:55:00,
2013-02-15 22:56:00,23.3,20.5,30.12,WNW,301,2.0,3.0,89,0.00,,---,0.04,VWS V14.00,2013-02-16 03:56:00,
2013-02-15 22:57:00,23.3,20.5,30.12,WNW,301,1.0,3.0,89,0.00,,---,0.04,VWS V14.00,2013-02-16 03:57:00,
2013-02-15 22:58:00,23.3,20.5,30.12,WNW,301,0.0,3.0,89,0.00,,---,0.04,VWS V14.00,2013-02-16 03:58:00,
2013-02-15 23:00:00,23.3,20.5,30.12,WNW,301,2.0,2.0,89,0.00,,---,0.04,VWS V14.00,2013-02-16 04:00:00,
2013-02-15 23:01:00,23.4,20.6,30.12,WNW,301,1.0,3.0,89,0.00,,---,0.04,VWS V14.00,2013-02-16 04:01:00,
2013-02-15 23:03:00,23.4,20.6,30.12,WNW,301,2.0,3.0,89,0.00,,---,0.04,VWS V14.00,2013-02-16 04:03:00,
2013-02-15 23:04:00,23.4,20.6,30.12,WNW,300,2.0,3.0,89,0.00,,---,0.04,VWS V14.00,2013-02-16 04:04:00,
2013-02-15 23:07:00,23.4,20.6,30.12,WNW,301,1.0,3.0,89,0.00,,---,0.04,VWS V14.00,2013-02-16 04:07:00,
2013-02-15 23:08:00,23.4,20.6,30.12,WNW,300,2.0,3.0,89,0.00,,---,0.04,VWS V14.00,2013-02-16 04:08:00,
2013-02-15 23:09:00,23.4,20.6,30.12,WNW,300,1.0,3.0,89,0.00,,---,0.04,VWS V14.00,2013-02-16 04:09:00,
2013-02-15 23:13:00,23.4,20.6,30.12,WNW,301,3.0,4.0,89,0.00,,---,0.04,VWS V14.00,2013-02-16 04:13:00,
2013-02-15 23:14:00,23.4,20.6,30.12,WNW,301,3.0,4.0,89,0.00,,---,0.04,VWS V14.00,2013-02-16 04:14:00,
2013-02-15 23:15:00,23.4,20.6,30.12,WNW,301,2.0,4.0,89,0.00,,---,0.04,VWS V14.00,2013-02-16 04:15:00,
2013-02-15 23:18:00,23.4,20.6,30.12,WNW,301,2.0,4.0,89,0.00,,---,0.04,VWS V14.00,2013-02-16 04:18:00,
2013-02-15 23:20:00,23.4,20.6,30.11,WNW,301,2.0,4.0,89,0.00,,---,0.04,VWS V14.00,2013-02-16 04:20:00,
2013-02-15 23:21:00,23.4,20.6,30.11,WNW,301,3.0,4.0,89,0.00,,---,0.04,VWS V14.00,2013-02-16 04:21:00,
2013-02-15 23:22:00,23.4,20.6,30.11,WNW,301,1.0,4.0,89,0.00,,---,0.04,VWS V14.00,2013-02-16 04:22:00,
2013-02-15 23:25:00,23.4,20.6,30.11,WNW,301,1.0,4.0,89,0.00,,---,0.04,VWS V14.00,2013-02-16 04:25:00,
2013-02-15 23:28:00,23.4,20.6,30.11,WNW,300,2.0,4.0,89,0.00,,---,0.04,VWS V14.00,2013-02-16 04:28:00,
2013-02-15 23:29:00,23.3,20.5,30.11,WNW,301,3.0,3.0,89,0.00,,---,0.04,VWS V14.00,2013-02-16 04:29:00,
2013-02-15 23:32:00,23.3,20.5,30.11,WNW,300,3.0,3.0,89,0.00,,---,0.04,VWS V14.00,2013-02-16 04:32:00,
2013-02-15 23:34:00,23.3,20.5,30.11,WNW,300,3.0,3.0,89,0.00,,---,0.04,VWS V14.00,2013-02-16 04:34:00,
2013-02-15 23:37:00,23.4,20.6,30.11,WNW,301,2.0,3.0,89,0.00,,---,0.04,VWS V14.00,2013-02-16 04:37:00,
2013-02-15 23:40:00,23.4,20.6,30.11,WNW,300,3.0,3.0,89,0.00,,---,0.04,VWS V14.00,2013-02-16 04:40:00,
2013-02-15 23:41:00,23.4,20.6,30.11,WNW,300,2.0,5.0,89,0.00,,---,0.04,VWS V14.00,2013-02-16 04:41:00,
2013-02-15 23:42:00,23.4,20.6,30.11,WNW,300,3.0,5.0,89,0.00,,---,0.04,VWS V14.00,2013-02-16 04:42:00,
2013-02-15 23:45:00,23.4,20.6,30.11,WNW,300,2.0,5.0,89,0.00,,---,0.04,VWS V14.00,2013-02-16 04:45:00,
2013-02-15 23:46:00,23.4,20.6,30.11,WNW,300,3.0,5.0,89,0.00,,---,0.04,VWS V14.00,2013-02-16 04:46:00,
2013-02-15 23:47:00,23.4,20.6,30.11,WNW,300,1.0,5.0,89,0.00,,---,0.04,VWS V14.00,2013-02-16 04:47:00,
2013-02-15 23:51:00,23.4,20.6,30.11,WNW,300,3.0,5.0,89,0.00,,---,0.04,VWS V14.00,2013-02-16 04:51:00,
2013-02-15 23:52:00,23.4,20.6,30.11,WNW,300,1.0,5.0,89,0.00,,---,0.04,VWS V14.00,2013-02-16 04:52:00,
2013-02-15 23:55:00,23.4,20.6,30.11,WNW,300,2.0,5.0,89,0.00,,---,0.04,VWS V14.00,2013-02-16 04:55:00,
2013-02-15 23:57:00,23.3,20.5,30.11,WNW,300,2.0,5.0,89,0.00,,---,0.04,VWS V14.00,2013-02-16 04:57:00,
2013-02-15 23:59:00,23.3,20.5,30.11,WNW,300,1.0,1.0,89,0.00,,---,0.00,VWS V14.00,2013-02-16 04:59:00,